GFSNE_925_thetae_000.txt.gz
Theta_e
323 322 322 323 323 323 323 321 322 324 323 320 320 320 316 316 315 312 307 305 304 301 299 298 297 297 296 296 295 294 294 293 294 294 294 295 296 295
324 323 322 323 323 322 321 321 320 321 322 321 321 320 317 315 314 310 306 304 301 299 297 296 295 294 294 293 293 292 292 292 293 293 294 294 294 294
326 324 324 323 323 322 320 318 317 317 319 319 320 319 314 312 311 309 303 300 298 297 295 293 292 292 291 291 291 291 291 291 291 291 292 292 292 293
326 326 325 324 323 323 320 318 318 317 317 318 319 313 307 308 306 302 298 296 296 293 292 289 291 289 290 290 289 289 289 289 290 290 290 290 291 291
326 325 325 325 324 323 322 320 318 317 317 318 319 306 304 303 299 298 297 296 294 291 288 288 287 288 288 288 288 288 287 287 288 289 290 290 290 290
326 326 325 325 324 324 322 321 320 319 318 317 315 303 300 299 298 300 298 296 294 289 288 287 286 286 287 287 287 286 286 287 288 289 289 289 289 289
326 325 325 324 324 324 322 320 320 321 318 313 305 301 299 297 298 298 298 296 291 288 288 288 287 287 287 286 286 286 287 287 289 288 288 288 288 288
324 325 324 324 323 323 322 322 320 319 315 311 307 305 301 300 299 297 295 291 291 288 287 287 287 287 287 286 286 285 286 288 287 287 287 287 287 287
324 324 324 323 322 321 321 320 320 319 317 314 306 304 303 299 297 294 291 290 289 287 286 287 287 287 286 286 285 285 286 287 286 286 286 285 285 286
322 323 324 324 322 320 318 316 316 315 313 313 313 309 302 297 295 292 290 288 286 285 285 288 288 287 286 286 285 284 285 285 285 285 284 284 284 285
321 322 323 323 323 318 317 310 305 304 303 304 303 301 296 294 292 287 287 287 288 287 286 286 287 286 285 285 285 284 284 284 284 284 284 284 284 284
320 320 321 322 322 317 314 305 299 297 296 294 293 291 290 287 286 288 287 287 287 287 286 285 286 284 285 285 285 284 283 283 283 283 283 283 283 283
318 319 319 319 320 315 313 309 305 295 294 293 290 289 288 287 286 285 284 286 286 286 285 284 284 283 283 284 284 283 283 283 283 283 283 283 283 283
316 317 317 318 316 313 307 304 299 295 292 290 288 287 287 286 286 285 283 283 284 285 284 282 282 281 282 281 283 283 283 283 282 282 283 283 283 283
311 314 316 316 311 305 303 300 296 291 289 287 287 286 286 286 284 283 282 282 282 282 283 282 282 281 281 280 281 281 282 282 282 282 282 282 283 282
308 311 311 308 304 300 298 295 291 290 289 287 286 285 284 283 283 283 283 283 283 283 282 280 281 280 280 281 281 281 282 282 282 282 282 282 282 283
304 303 302 299 297 297 293 289 289 289 287 286 285 283 284 283 283 283 283 283 283 284 284 283 282 280 280 279 280 281 282 282 282 282 282 282 283 283
301 300 297 296 295 292 290 289 288 287 286 285 284 283 284 284 283 282 283 283 283 283 283 282 280 280 281 282 280 280 281 281 282 282 282 283 284 284
301 298 296 296 295 292 291 289 288 286 285 284 284 284 284 283 283 283 282 283 283 283 282 280 279 280 281 283 282 280 280 280 281 281 282 283 283 283
301 297 296 295 293 292 290 288 286 284 285 284 284 283 283 283 283 283 282 283 283 282 281 281 280 279 279 280 279 279 279 279 279 281 281 282 282 282
296 296 295 294 291 290 288 286 285 285 284 284 283 283 283 283 282 282 282 282 281 281 281 281 280 276 276 274 277 281 281 281 280 279 280 280 282 284
297 295 293 292 290 288 286 286 285 285 283 283 282 282 283 282 282 281 281 282 281 281 280 279 279 277 277 278 280 280 281 282 281 282 282 281 281 283
294 294 292 291 289 287 287 286 285 284 283 283 282 282 282 282 281 281 281 281 280 280 280 279 279 279 278 278 278 280 282 282 282 282 283 283 283 283

GFSNE_925_thetae_003.txt.gz
Theta_e
330 328 326 325 324 323 323 323 321 323 323 321 320 319 319 317 317 317 315 312 311 309 304 302 301 299 297 297 297 296 295 294 294 295 295 295 296 297
330 328 326 325 325 324 323 323 323 322 324 322 322 321 320 318 317 315 310 306 305 303 300 300 299 297 296 295 294 294 293 293 293 293 294 294 295 295
330 329 328 326 325 324 324 323 323 323 322 323 323 321 320 317 315 310 306 305 301 299 297 298 298 296 294 292 292 292 292 292 292 292 293 293 293 293
329 329 328 326 326 325 324 324 323 322 322 321 321 320 318 315 312 309 306 302 299 299 297 296 296 294 289 291 291 291 290 290 290 290 291 291 292 292
328 328 328 328 326 325 325 324 323 321 320 320 321 319 311 310 304 303 302 300 299 297 295 294 292 289 290 290 290 290 290 289 289 289 290 291 291 291
326 327 327 327 327 326 325 324 323 321 320 319 318 308 304 302 304 301 299 298 298 296 292 291 290 289 289 289 289 289 288 288 288 289 290 290 290 290
324 325 326 326 326 326 325 325 324 322 320 319 317 306 303 299 300 300 301 300 297 295 291 290 289 289 288 288 289 288 288 288 288 289 290 289 289 289
320 322 324 324 324 325 325 324 324 322 320 318 316 310 309 305 302 300 299 296 293 291 289 289 288 288 287 287 287 288 287 287 288 289 288 288 288 288
318 320 321 322 324 323 323 324 323 322 321 319 315 312 312 307 303 298 297 294 292 290 288 287 288 288 288 287 288 287 287 287 288 288 287 287 287 287
316 317 319 320 321 323 322 322 319 319 319 319 316 314 311 305 304 300 295 291 289 287 286 288 289 288 288 287 287 287 286 287 287 286 286 286 286 286
314 315 316 319 319 321 321 320 318 316 315 312 311 310 307 304 301 295 290 289 289 287 286 287 287 287 286 286 285 286 286 286 286 285 285 286 286 286
310 312 313 315 317 319 320 318 308 304 301 299 299 297 297 294 294 293 289 290 289 288 287 286 287 285 285 286 286 285 285 284 285 285 285 285 285 285
308 307 310 312 315 317 319 318 312 302 297 296 292 291 289 289 288 288 288 288 287 288 286 286 285 284 284 284 284 284 284 284 284 284 284 284 285 285
303 303 306 307 309 314 317 316 308 298 294 292 291 289 288 287 286 286 286 286 286 286 285 284 283 283 282 282 282 284 283 282 283 283 283 283 284 284
300 301 303 305 307 310 313 310 301 295 293 292 291 289 287 286 286 285 284 284 284 284 284 283 282 281 282 281 281 281 282 283 283 283 283 283 283 283
299 300 301 302 304 307 306 300 296 294 293 292 288 287 286 285 284 284 284 283 284 284 282 282 281 281 281 280 280 282 282 282 283 282 283 283 283 283
299 301 302 302 300 300 299 294 292 292 290 288 286 285 285 285 285 284 284 284 285 285 284 283 283 282 281 281 280 280 281 282 283 283 283 282 283 283
301 303 301 298 297 297 292 291 291 291 288 287 286 285 285 285 284 284 284 284 284 284 284 284 283 281 281 283 282 281 282 282 282 282 282 282 282 283
298 299 298 296 295 293 291 291 291 288 286 286 285 285 285 284 284 284 284 284 284 284 284 283 281 280 278 280 282 284 282 281 281 280 280 281 282 282
295 293 294 295 295 292 292 290 287 286 286 285 285 285 284 284 284 284 284 284 284 283 283 282 281 281 277 277 278 279 280 280 280 280 280 281 281 281
293 292 292 292 292 292 290 287 286 285 285 285 285 284 284 285 284 284 284 284 283 282 282 282 282 280 277 276 275 278 281 281 282 281 282 282 281 282
292 292 292 291 291 290 287 286 286 285 285 284 284 284 284 284 284 283 283 282 282 282 281 281 280 279 278 278 278 279 279 281 283 284 284 283 283 282
290 291 290 291 290 288 287 286 286 285 285 284 284 284 283 283 282 282 282 282 281 280 281 280 280 280 280 279 281 280 281 283 284 282 282 284 284 284

GFSNE_925_thetae_006.txt.gz
Theta_e
331 331 331 330 328 326 325 324 323 324 323 322 320 320 320 319 318 318 319 318 317 316 314 311 310 308 305 302 301 300 299 298 296 296 296 296 297 297
330 330 330 330 329 326 325 324 323 323 324 323 322 321 320 320 319 319 318 317 316 314 311 309 308 304 302 299 298 297 296 295 294 295 295 295 296 295
329 329 329 329 328 326 325 324 323 323 323 323 323 323 321 320 318 318 317 315 311 307 307 306 304 301 298 297 296 294 294 293 293 293 293 294 294 294
324 326 326 326 327 327 326 324 324 323 322 323 323 322 321 318 316 316 315 308 306 305 303 301 299 298 296 295 293 293 293 292 292 292 291 292 292 292
320 321 322 324 325 326 326 326 324 323 323 322 322 322 320 316 307 308 306 302 301 302 300 298 297 295 295 292 292 292 292 291 291 290 290 290 291 292
316 317 319 321 323 324 325 325 325 324 323 322 321 320 312 307 306 303 300 300 299 298 298 297 295 294 293 292 292 291 291 291 290 290 290 290 291 291
313 314 315 317 319 321 323 324 324 324 323 322 320 314 304 300 303 304 303 300 299 297 295 294 293 292 290 290 291 290 290 289 289 289 290 290 291 290
312 312 313 315 317 318 320 322 323 323 323 322 320 317 313 310 307 304 304 298 297 298 296 292 292 290 289 289 288 289 289 289 289 289 289 290 289 289
309 310 311 314 315 316 318 318 320 322 322 322 321 319 317 313 307 304 303 300 295 293 294 289 289 288 288 288 288 289 289 289 289 288 289 289 289 288
306 306 308 310 311 314 315 316 317 319 320 320 319 320 318 316 311 308 303 295 291 290 290 288 288 288 288 288 288 289 289 289 288 288 288 288 288 288
304 304 305 305 306 308 310 313 313 317 318 319 320 319 318 315 311 303 294 293 289 287 286 287 287 287 287 287 287 287 287 287 287 287 287 287 287 287
299 298 301 302 303 304 306 308 312 313 313 310 310 310 310 306 302 303 295 293 290 289 286 287 286 286 284 285 286 286 286 286 286 286 286 286 286 286
295 296 297 300 300 301 302 304 305 310 308 303 300 298 296 293 293 294 293 294 289 288 287 286 286 285 283 284 284 285 284 284 284 284 284 284 285 286
294 294 295 297 298 300 301 303 304 307 302 295 292 291 290 290 291 291 291 290 289 287 287 286 284 284 282 281 281 283 283 282 282 283 283 283 284 285
293 294 295 297 299 300 301 302 304 304 296 293 292 291 290 290 289 288 287 286 286 286 286 285 284 282 281 281 280 281 281 282 282 282 283 283 283 283
293 294 298 300 302 302 302 303 305 299 294 294 292 290 288 287 286 285 285 284 283 283 283 283 282 281 281 281 281 279 279 281 282 281 282 282 283 283
294 296 297 296 298 299 298 295 294 294 293 290 288 287 286 286 285 284 284 284 285 284 283 282 282 282 281 281 280 280 280 280 281 281 282 281 281 282
293 295 294 294 294 295 294 291 291 290 288 288 287 286 286 285 285 285 284 284 284 284 284 283 283 281 280 281 281 280 280 280 282 281 281 280 280 281
291 292 293 292 292 293 292 291 290 288 288 287 286 286 285 285 285 285 284 284 284 284 284 283 281 279 272 274 280 283 282 283 282 281 280 279 280 280
289 289 291 291 291 290 291 290 287 286 286 286 285 285 285 285 284 284 284 283 283 283 282 282 281 280 276 274 276 278 279 278 279 279 279 280 280 281
287 288 290 291 290 290 290 288 287 286 286 285 285 285 285 284 284 283 283 284 283 282 277 281 282 281 280 278 274 277 279 281 281 281 281 282 283 283
286 288 289 290 289 289 288 287 286 286 285 285 285 285 285 284 284 283 284 283 282 282 281 281 280 280 279 277 275 277 278 281 282 283 284 284 284 283
286 287 288 289 288 288 288 286 286 285 285 285 285 284 284 283 283 283 282 282 282 280 280 280 280 280 280 279 280 280 280 281 283 283 283 285 284 284

GFSNE_925_thetae_009.txt.gz
Theta_e
328 329 329 329 329 328 328 327 325 326 324 322 321 321 320 319 319 319 318 319 319 318 319 318 318 320 319 315 311 308 307 305 303 301 299 298 298 298
321 324 325 326 327 328 328 327 327 325 326 323 323 322 322 321 320 319 318 318 319 319 319 318 316 317 316 312 308 305 303 302 300 298 297 297 297 298
315 317 319 321 323 324 325 326 326 325 325 324 323 323 322 322 321 321 319 318 318 319 318 317 315 313 312 308 305 303 301 299 297 296 296 296 296 296
314 315 317 318 319 319 322 323 324 324 324 324 323 323 322 322 321 321 319 318 318 319 317 315 311 309 307 304 302 300 298 297 295 294 294 294 294 294
311 312 313 314 315 315 317 319 321 322 323 324 323 323 322 320 317 316 314 314 313 315 312 311 308 306 303 301 300 298 296 295 294 293 293 292 292 292
309 310 310 311 312 313 314 315 317 318 320 321 322 322 322 313 314 311 305 305 306 307 307 306 305 304 302 299 298 295 295 294 293 292 292 291 291 292
307 305 306 308 308 309 312 314 315 316 317 318 319 321 320 304 307 310 310 307 303 302 301 302 301 300 299 298 295 294 293 293 292 292 291 291 291 291
300 302 304 305 306 307 309 310 313 314 315 316 317 318 318 314 312 310 309 301 300 299 298 297 298 296 295 295 293 292 292 292 291 291 291 291 291 292
300 299 302 302 300 303 304 305 307 309 311 313 315 316 318 319 316 312 309 306 305 300 297 296 292 292 293 292 290 290 290 291 291 290 290 290 290 291
298 298 299 295 296 299 302 303 302 304 306 310 313 315 316 318 318 314 311 305 295 295 296 292 289 291 292 291 289 290 290 290 290 290 290 289 289 289
296 297 294 293 295 296 298 299 300 301 302 303 307 310 311 313 317 312 300 297 293 290 291 289 288 288 288 288 288 290 290 290 290 290 289 289 288 288
295 294 293 293 293 295 297 297 298 299 299 301 304 306 307 309 313 313 305 301 293 290 289 288 287 287 287 286 287 287 287 288 289 289 289 288 288 287
293 293 292 292 293 295 297 299 300 300 301 302 303 303 301 303 305 306 304 301 294 292 288 291 286 285 284 284 284 285 286 287 286 285 285 286 286 286
292 292 291 291 294 296 298 301 302 302 302 302 300 295 293 291 292 295 295 295 294 294 289 290 286 285 284 283 283 282 283 283 283 283 283 283 284 285
290 290 291 293 295 295 295 296 298 297 300 300 295 292 291 292 292 291 290 289 289 288 288 287 286 284 283 281 281 281 281 282 282 282 282 282 282 283
289 290 292 292 293 293 293 294 293 293 294 294 292 291 290 289 287 286 285 286 285 284 285 284 284 283 281 281 281 280 280 280 281 282 281 281 282 282
289 290 290 290 291 291 292 292 292 292 292 291 289 288 287 286 285 285 285 285 284 284 283 283 282 282 281 281 280 280 280 280 281 281 281 281 281 281
288 288 287 288 290 290 291 291 291 290 290 289 288 287 286 285 285 284 284 285 285 283 282 282 282 281 280 281 281 280 280 280 281 282 281 280 280 281
286 286 286 288 289 290 290 290 290 290 288 288 287 286 285 285 285 285 285 285 284 282 282 282 280 276 271 276 280 282 281 282 282 281 281 280 280 280
284 285 286 287 288 289 289 289 289 287 286 286 286 285 286 286 285 285 285 284 282 281 280 281 281 279 273 274 275 279 281 279 278 278 279 280 280 281
284 284 285 286 287 288 289 288 287 286 286 286 285 285 285 285 285 284 283 284 282 281 273 278 281 281 280 278 275 277 280 282 281 280 280 280 281 282
283 284 284 285 286 286 288 288 286 286 286 285 285 285 285 285 284 283 284 283 282 281 280 280 280 280 279 277 274 275 278 280 282 282 282 283 283 284
283 283 284 283 284 285 287 287 286 286 285 285 285 285 285 284 283 283 283 282 281 280 280 279 280 279 279 278 278 278 278 280 282 283 283 285 284 284

GFSNE_925_thetae_012.txt.gz
Theta_e
313 314 318 319 321 323 324 325 327 328 327 325 324 323 321 320 320 320 319 320 319 319 320 318 318 318 320 320 321 321 321 319 316 313 310 307 304 303
311 312 313 314 316 318 320 321 322 323 324 323 324 324 323 322 321 320 320 321 320 320 320 319 318 318 318 319 319 320 319 316 312 310 307 305 303 300
307 309 310 311 312 313 315 316 317 318 320 320 321 322 323 323 322 322 321 321 319 320 319 319 319 318 318 319 319 319 316 311 309 307 305 303 300 300
306 308 309 309 309 310 311 312 313 314 316 317 317 318 320 321 322 321 320 320 319 319 320 319 318 318 318 318 317 315 312 308 306 304 302 300 299 299
306 307 306 305 305 306 308 308 309 310 312 314 315 315 317 319 320 320 320 318 318 319 317 318 317 317 317 317 314 312 307 305 302 300 299 297 297 297
303 299 298 301 302 304 305 306 308 310 311 312 313 313 314 315 317 317 316 311 312 315 313 314 314 315 315 314 309 306 304 301 300 298 296 295 295 294
296 295 296 299 298 302 302 298 302 305 304 307 310 312 313 314 311 313 313 313 311 310 310 310 310 312 311 309 306 303 301 298 297 296 295 294 293 293
293 293 294 296 298 299 294 295 298 301 303 304 306 307 309 312 313 314 313 313 313 310 305 305 306 307 307 306 303 300 298 296 296 296 295 294 293 293
292 292 292 294 296 293 293 294 296 296 298 300 301 302 304 307 311 312 313 313 311 307 303 303 301 302 300 301 299 297 296 295 294 294 293 293 292 292
291 291 292 294 294 293 293 294 294 294 296 297 298 299 301 303 305 307 309 312 305 304 301 300 294 297 294 296 297 296 294 294 293 293 293 292 292 291
290 291 293 292 292 293 292 292 293 294 296 298 299 299 300 300 302 304 306 302 301 295 296 294 290 289 290 292 294 292 291 291 292 292 292 292 291 290
290 291 290 290 291 291 292 292 294 295 297 299 300 301 301 301 302 303 304 305 303 293 292 293 289 288 288 287 289 290 291 292 292 292 292 291 291 290
289 289 289 289 290 291 292 293 296 295 296 297 298 299 301 302 299 297 298 303 304 294 292 293 288 286 287 285 285 287 289 290 291 291 291 290 290 289
289 288 288 289 290 291 291 293 294 293 294 293 294 296 299 296 294 293 294 296 297 296 292 292 287 286 285 285 285 283 284 286 288 289 289 288 287 288
288 288 288 288 289 289 290 291 291 290 291 292 293 294 293 292 290 289 290 290 288 287 289 291 289 286 285 285 283 281 282 283 284 284 283 283 283 283
287 287 287 287 287 287 288 289 290 290 291 291 291 291 290 288 287 287 287 286 285 283 285 285 287 284 281 282 281 280 281 281 281 281 281 282 282 282
285 286 285 285 285 286 287 288 289 289 290 290 289 289 288 286 285 286 286 285 285 284 283 282 281 281 282 282 280 281 280 280 281 281 281 281 281 281
284 284 284 284 285 286 286 287 288 289 289 288 288 288 287 285 285 285 286 285 284 284 282 281 281 281 280 280 281 280 280 280 280 281 280 280 281 282
283 283 283 283 284 285 285 287 287 288 288 287 287 287 286 285 285 285 285 285 284 281 279 280 279 273 272 276 279 281 280 280 281 281 281 280 281 281
282 282 282 282 283 284 284 285 286 288 287 286 286 285 285 285 285 285 285 283 281 280 277 279 279 278 271 273 275 279 281 282 281 280 279 280 280 280
282 282 282 282 283 283 282 284 285 287 287 286 285 285 285 285 285 284 284 283 282 279 276 274 279 279 280 278 276 277 280 281 280 279 279 279 281 282
281 281 281 281 282 282 282 283 285 286 286 285 285 285 285 285 284 284 284 282 280 279 277 279 280 279 279 275 272 273 278 281 283 282 282 281 282 280
281 281 280 281 281 281 281 283 284 286 285 285 284 284 284 283 283 283 282 281 280 279 278 279 278 278 278 277 276 275 278 279 281 282 283 284 284 283

GFSNE_925_thetae_015.txt.gz
Theta_e
308 307 306 309 311 312 313 315 316 317 316 316 318 319 321 323 322 321 321 321 322 322 318 319 320 320 320 319 322 322 322 322 321 322 322 320 317 316
302 303 305 307 308 308 309 309 311 313 314 313 314 315 316 318 320 321 321 321 320 320 319 319 320 321 320 319 319 321 321 321 320 320 322 319 316 313
301 303 304 307 306 304 303 304 306 308 310 309 309 311 313 314 316 318 319 320 319 319 319 319 320 319 320 320 319 319 320 321 320 319 321 319 316 312
300 302 304 299 298 298 300 300 304 304 305 305 307 308 310 312 313 314 316 317 319 319 319 319 319 318 319 319 318 318 318 320 320 320 319 316 313 310
300 299 295 295 295 298 297 298 302 302 297 300 304 306 307 309 312 313 314 315 315 317 318 318 318 318 318 318 318 318 318 319 320 319 315 312 309 306
292 292 293 293 293 295 297 298 296 294 296 299 299 301 302 304 307 310 312 313 313 314 314 315 315 315 316 315 316 317 318 318 318 313 310 307 304 302
289 288 289 291 291 292 294 297 295 294 294 296 297 297 300 302 302 305 307 309 310 312 312 312 311 311 312 313 315 317 317 316 313 308 304 301 300 299
287 288 290 289 290 292 294 294 294 294 294 294 294 295 296 297 299 301 303 305 307 309 311 311 311 309 310 311 313 314 313 310 306 303 300 299 298 297
288 288 288 289 290 292 291 291 292 292 292 293 293 294 295 296 298 299 300 301 302 306 306 308 309 307 308 308 310 311 308 304 302 300 298 297 296 295
288 288 289 289 290 289 290 290 290 290 291 292 292 294 296 297 298 299 300 300 300 302 304 305 306 303 303 304 306 305 303 300 299 298 297 296 295 294
288 288 289 289 289 289 289 290 290 290 291 292 295 295 295 296 298 300 301 300 301 302 302 303 299 293 293 296 301 302 300 299 297 296 296 294 293 294
288 289 288 288 288 289 289 289 291 292 292 294 294 292 293 293 295 298 300 301 301 302 299 298 291 290 290 290 296 299 298 296 294 292 292 293 294 293
288 287 287 287 288 288 288 289 289 291 292 292 290 290 291 291 294 295 295 297 298 298 300 296 290 289 288 286 287 290 291 291 291 292 292 294 293 292
287 287 287 287 286 287 286 286 288 290 289 289 290 290 290 291 292 291 291 290 290 290 294 294 290 288 286 286 286 286 289 290 291 291 292 293 293 292
286 288 285 285 285 284 284 286 287 287 288 288 290 290 290 290 289 288 287 285 285 286 288 289 289 287 286 286 284 283 284 285 288 290 290 291 291 291
287 285 283 283 283 283 283 284 285 286 287 288 289 289 289 288 287 287 287 285 284 283 283 284 286 287 283 283 284 284 283 284 285 287 288 288 287 287
285 283 282 282 282 282 283 283 284 285 286 286 288 287 287 288 286 286 286 285 284 283 282 282 282 282 282 281 282 282 280 280 281 282 282 281 281 282
283 282 282 282 282 282 282 283 284 284 284 285 287 286 286 287 286 285 285 285 284 283 282 282 281 281 280 281 281 279 280 280 280 280 281 280 280 281
282 282 281 281 281 281 282 283 282 282 284 285 287 286 285 285 286 285 285 284 283 281 279 279 278 277 278 278 279 281 280 280 280 279 280 280 280 282
281 281 281 281 280 281 281 282 282 282 283 286 286 285 285 285 285 285 284 283 282 280 278 278 277 274 272 274 275 280 281 280 281 280 280 280 281 281
281 280 280 280 280 280 281 281 281 281 283 285 285 284 285 285 285 284 284 284 282 280 279 276 276 278 279 279 278 278 280 281 281 281 280 279 280 281
280 280 280 280 279 280 280 280 280 281 282 285 284 284 284 284 284 284 283 282 280 279 277 276 278 279 278 275 272 272 278 280 280 281 280 282 281 280
279 279 279 279 279 280 280 280 280 281 283 284 284 283 283 282 282 282 281 279 278 277 277 277 277 276 276 275 272 271 277 279 281 282 282 283 282 284

GFSNE_925_thetae_018.txt.gz
Theta_e
297 299 300 302 303 306 307 305 305 305 304 304 306 308 310 311 312 313 314 317 318 319 319 318 318 319 320 320 321 322 323 324 324 323 322 323 322 322
292 297 298 301 302 301 297 299 300 301 302 300 302 303 303 305 307 309 310 312 313 315 316 319 319 319 319 319 320 320 320 321 321 323 322 322 321 322
292 294 299 299 294 294 294 297 297 296 299 300 300 300 295 298 304 308 309 311 312 312 313 315 316 318 318 318 318 318 320 321 321 321 322 322 321 322
292 293 292 292 292 292 293 293 294 295 297 298 296 296 296 299 299 299 302 305 307 311 312 312 313 314 317 318 318 318 318 318 319 320 321 322 321 321
292 290 288 288 288 290 291 291 292 294 296 295 294 294 295 295 298 298 300 302 305 308 309 311 312 312 313 315 317 317 317 318 318 318 319 321 321 321
289 287 287 287 288 290 289 290 292 294 293 293 293 293 293 294 295 296 297 298 299 301 304 306 308 310 310 312 314 314 315 316 317 316 316 318 320 321
287 287 287 288 288 289 290 291 291 291 291 292 293 293 292 292 293 293 295 296 297 299 301 303 305 308 310 310 311 311 312 314 314 315 316 317 319 320
287 287 287 287 288 289 289 289 290 290 290 290 291 291 290 291 292 292 294 296 297 297 299 301 301 305 307 310 309 310 310 311 313 314 315 317 317 315
287 287 287 288 288 288 288 289 289 289 290 290 290 290 290 291 292 293 295 296 297 297 298 299 299 300 302 306 307 308 308 310 312 312 314 313 309 306
287 287 287 288 288 288 288 289 289 289 288 289 290 291 291 292 293 294 294 295 297 297 299 299 299 300 302 303 304 306 306 307 308 311 310 305 303 301
287 287 288 287 286 287 289 288 288 288 288 287 289 290 291 292 292 292 293 293 295 296 298 300 300 301 299 299 301 303 304 306 308 304 301 300 299 298
286 287 286 286 287 288 287 287 287 285 286 288 289 288 288 289 290 290 291 292 294 293 297 300 300 295 295 290 293 297 304 305 303 301 299 298 297 294
287 285 285 286 288 285 285 285 285 286 287 287 286 287 288 289 289 289 290 291 291 290 291 294 295 292 291 289 289 294 300 301 300 299 297 295 293 292
285 285 285 286 284 284 284 284 284 285 284 285 286 287 287 288 288 288 288 288 287 285 285 286 290 292 288 287 289 288 291 293 292 292 293 293 293 292
285 286 284 284 283 282 282 283 283 282 283 285 285 286 286 287 287 287 287 287 286 284 283 285 287 288 288 287 285 284 286 288 291 291 292 293 293 292
286 284 283 282 281 281 281 281 281 282 283 284 284 284 284 287 286 286 286 286 285 284 282 282 284 286 284 285 286 285 285 286 288 290 291 291 291 291
283 282 281 281 281 280 280 280 281 281 283 282 283 283 284 286 286 286 285 286 284 283 282 282 281 282 283 284 284 284 283 284 285 286 288 284 286 288
281 281 281 280 280 280 280 280 280 281 282 282 282 283 284 286 285 286 285 284 284 283 282 280 281 281 281 282 282 281 280 280 281 284 285 282 281 284
280 281 280 280 280 280 280 280 280 281 281 281 281 283 285 285 285 285 285 284 282 281 279 278 277 279 282 281 280 280 280 280 280 280 282 281 281 282
279 280 279 279 279 279 279 279 280 280 280 281 282 283 284 284 285 285 283 283 282 280 279 278 277 276 278 279 279 280 280 280 280 279 280 280 281 281
279 279 279 279 279 279 279 279 280 280 281 280 282 284 284 284 284 284 284 284 282 280 279 277 275 276 278 278 279 278 280 281 281 281 280 280 280 280
278 279 278 279 279 279 278 279 279 279 280 281 283 283 283 283 283 283 282 281 280 279 277 276 277 278 278 275 273 273 278 280 281 281 281 282 281 279
278 278 278 278 278 278 278 279 279 279 280 281 283 282 282 282 281 281 279 279 278 277 277 277 277 277 274 275 274 274 277 279 280 281 282 283 284 286

GFSNE_925_thetae_021.txt.gz
Theta_e
291 291 293 296 299 298 299 296 298 298 299 299 298 296 297 299 301 301 298 298 304 307 310 311 312 313 315 317 318 318 320 319 324 323 323 324 324 323
290 291 293 294 293 293 293 292 293 296 299 295 294 294 295 298 297 296 295 302 300 296 299 304 309 312 314 314 317 317 318 319 319 322 323 324 324 324
289 290 292 290 289 289 288 290 292 292 294 293 294 294 297 295 294 294 295 295 298 300 299 303 305 308 310 312 314 315 316 318 319 319 320 322 323 324
289 290 290 288 287 287 288 289 290 290 292 294 293 294 293 293 293 293 294 295 295 297 300 302 301 301 306 309 312 313 313 315 317 318 318 319 322 321
288 289 288 287 287 287 288 289 290 290 291 292 292 291 291 292 292 292 292 293 294 295 297 298 300 302 302 302 306 310 311 312 314 316 316 317 317 318
287 287 287 287 287 288 289 289 290 290 290 291 291 291 291 290 291 291 290 291 292 293 294 295 297 299 300 302 305 307 308 310 312 314 314 315 316 317
287 286 286 287 287 288 289 289 289 289 290 290 291 291 291 291 291 290 291 291 291 292 293 295 296 298 301 300 301 305 309 310 310 311 312 313 316 316
286 286 286 286 287 287 288 288 288 289 289 290 290 291 290 289 290 291 291 293 293 293 294 296 296 297 297 298 300 301 302 307 309 310 309 309 311 314
286 286 286 286 287 288 287 287 288 289 287 287 288 289 289 289 289 291 291 292 293 293 294 294 294 296 297 298 299 299 300 304 305 306 307 309 311 313
285 286 286 286 286 286 287 288 287 286 286 287 287 286 287 288 289 291 291 291 291 292 293 295 294 295 297 299 299 300 302 303 303 304 306 307 309 310
285 285 286 285 285 286 288 287 286 285 285 285 286 287 288 288 287 289 290 291 292 292 291 293 294 294 295 299 300 300 301 302 302 303 304 305 309 310
285 286 285 285 285 288 286 285 285 284 285 286 285 285 285 285 286 287 288 290 291 290 291 291 292 292 295 294 295 297 298 301 301 302 305 307 303 302
286 285 284 285 287 285 284 284 283 284 284 284 283 283 284 285 286 287 287 289 289 289 289 289 290 290 292 294 292 295 297 301 305 305 303 300 299 299
285 284 285 286 284 283 282 282 283 283 282 282 282 283 285 284 284 285 285 287 287 287 288 285 285 287 290 292 293 290 292 298 300 299 297 295 295 294
284 285 284 282 282 281 281 282 281 281 281 282 283 283 283 283 283 284 285 286 287 286 285 283 283 284 287 291 290 288 289 289 294 294 293 292 291 292
285 282 281 281 281 281 280 280 280 280 281 282 282 282 282 282 283 284 286 286 286 286 283 282 282 283 288 289 289 289 287 289 290 290 290 291 291 291
282 281 280 280 281 280 280 280 280 280 281 281 281 282 282 282 283 286 286 286 286 285 284 283 282 283 284 286 286 286 287 286 288 287 287 286 289 291
281 280 280 280 280 280 280 280 280 280 280 280 281 281 282 283 285 286 286 285 284 283 282 281 280 283 284 283 283 284 283 283 285 286 286 285 284 287
280 279 279 279 279 279 279 279 280 280 279 280 280 281 282 284 285 286 285 284 283 282 280 279 279 281 286 284 282 281 283 282 283 283 285 285 285 283
279 279 279 279 279 279 279 279 279 279 279 280 280 281 283 284 285 285 284 284 283 282 281 278 279 278 282 283 283 281 281 283 284 283 282 282 282 282
279 278 278 278 278 278 278 278 279 279 280 279 280 282 283 283 284 284 283 283 283 282 281 279 276 277 277 279 282 281 281 282 283 282 281 282 282 282
278 278 278 278 278 278 278 278 278 279 279 279 280 283 282 282 282 282 281 281 280 280 279 277 278 279 280 282 281 280 281 281 281 281 282 282 284 284
278 278 278 277 277 277 277 278 278 278 279 280 281 282 281 281 280 280 280 281 282 281 280 281 280 279 278 280 281 281 281 281 282 283 283 285 285 285

GFSNE_925_thetae_024.txt.gz
Theta_e
291 292 292 292 294 295 293 293 295 296 295 294 295 294 292 292 294 294 298 298 297 296 296 299 298 299 303 305 308 311 313 315 317 318 317 318 320 326
290 290 291 292 293 292 291 290 290 291 294 294 294 292 292 293 293 295 296 294 294 295 295 298 300 299 300 304 306 309 310 312 314 316 318 319 320 320
290 290 290 291 291 290 289 289 289 290 294 292 292 292 292 292 293 292 292 292 293 293 294 295 296 297 300 302 302 304 308 311 313 314 316 318 320 320
289 289 289 289 289 288 288 289 289 290 291 293 292 291 292 291 292 292 291 292 292 292 292 293 294 296 297 299 300 302 303 303 307 311 312 315 318 320
289 289 288 288 288 288 288 289 289 290 290 290 291 291 291 291 291 291 291 291 291 291 291 291 292 294 295 297 299 300 301 303 307 308 308 312 313 316
288 288 288 287 287 287 288 288 289 290 289 290 290 291 291 290 290 291 292 291 291 291 292 292 293 294 295 296 298 299 301 301 304 308 309 310 312 314
288 287 287 287 287 287 288 288 288 289 289 290 291 291 290 290 290 290 291 290 290 291 292 293 293 294 295 296 298 297 298 299 302 303 308 310 311 312
287 286 286 286 287 287 287 287 287 288 289 290 290 290 289 288 289 289 289 291 292 290 291 292 292 294 294 295 296 298 298 298 299 301 302 304 309 310
286 286 286 286 286 287 286 286 287 288 289 288 288 288 288 288 288 288 289 290 292 290 290 291 292 293 293 294 295 296 296 298 300 300 301 304 306 306
286 286 286 286 286 286 286 287 289 287 286 286 286 286 286 287 287 288 288 289 289 290 291 293 292 293 293 293 294 295 297 298 300 301 302 303 304 304
285 285 286 286 285 285 287 287 286 286 285 284 285 286 286 286 286 286 287 289 290 290 290 291 291 292 292 292 292 293 297 299 301 302 302 302 303 303
285 286 285 285 285 286 286 285 285 284 284 285 285 284 284 284 284 285 286 288 289 289 288 290 290 290 292 291 294 294 294 295 297 298 300 301 302 304
286 285 285 285 286 284 284 284 283 284 284 284 283 283 283 284 284 285 284 285 286 288 286 288 289 289 291 291 290 291 293 294 294 296 300 303 303 306
285 285 285 285 283 283 283 283 283 283 283 282 283 283 283 283 283 284 283 284 284 285 285 287 287 288 289 289 290 291 293 292 295 299 302 303 302 301
284 285 285 283 282 281 282 282 282 282 282 282 283 283 282 282 283 283 284 284 285 286 287 287 285 285 285 287 288 292 292 291 294 293 293 295 296 297
284 284 282 282 281 281 281 281 281 281 282 282 282 282 282 282 283 283 284 285 287 288 286 284 283 284 285 285 288 292 289 290 290 291 291 291 292 292
284 282 281 281 281 281 281 281 281 281 281 281 281 281 282 282 283 283 285 287 286 286 285 284 283 283 285 287 290 290 289 289 290 290 290 290 289 290
281 281 281 280 281 280 280 280 280 280 280 280 280 281 282 282 283 286 285 285 285 284 282 281 281 282 286 285 285 287 287 288 288 289 290 290 290 290
280 280 280 280 280 280 280 280 280 280 279 280 280 281 281 283 285 286 286 285 285 283 282 280 281 284 287 286 283 283 286 287 287 288 288 288 288 290
279 280 280 279 279 279 279 279 279 279 279 280 280 281 282 284 284 285 284 285 285 283 283 281 279 279 283 284 283 283 284 286 285 285 285 284 285 289
279 279 279 279 279 279 279 279 279 279 280 280 280 282 283 283 283 283 283 283 283 283 283 283 279 279 279 281 284 283 283 284 285 285 285 285 285 285
279 279 278 278 278 278 278 278 278 279 279 280 281 282 283 282 282 282 283 283 284 284 283 283 282 283 284 284 283 283 283 283 284 284 285 285 286 286
278 278 278 278 278 278 278 278 278 279 280 280 282 282 282 282 282 282 283 284 285 285 284 285 284 283 284 284 284 284 284 284 285 285 285 286 285 284

GFSNE_925_thetae_027.txt.gz
Theta_e
291 291 292 292 293 292 294 294 294 293 292 292 291 292 293 292 292 293 292 294 293 294 294 295 294 295 296 298 301 300 300 303 305 309 311 314 316 318
290 291 291 291 291 292 292 292 291 292 292 291 291 291 291 292 292 292 292 293 291 292 293 293 294 295 295 295 297 298 298 301 304 305 308 312 315 317
290 290 290 290 290 290 290 290 290 290 291 291 291 291 291 291 291 291 291 292 292 291 292 292 293 293 293 293 294 296 298 299 301 304 306 309 313 315
289 289 290 290 289 289 289 289 289 289 290 291 290 290 290 290 290 291 291 291 291 291 290 291 292 292 292 293 293 294 296 297 299 301 303 306 309 313
288 289 289 289 289 288 288 288 288 289 289 290 290 289 289 290 290 291 290 289 289 290 290 290 290 291 293 293 294 295 296 296 298 300 302 304 307 310
288 288 288 288 288 288 288 288 289 289 289 289 289 289 290 290 290 289 288 288 289 290 289 288 290 291 291 293 293 295 296 297 298 298 301 302 306 309
287 288 287 287 287 287 288 288 288 288 288 288 289 290 290 289 288 288 288 288 288 288 289 289 290 291 292 292 292 294 294 296 297 298 299 300 302 304
287 287 287 287 287 287 287 287 288 287 287 289 290 289 288 287 287 287 287 287 288 288 289 289 289 289 290 291 292 293 294 294 295 296 297 299 300 302
286 286 286 287 286 287 287 287 287 287 288 286 287 286 286 286 286 287 287 288 288 287 288 288 289 290 291 292 293 292 293 294 295 296 297 299 300 301
286 286 286 286 286 286 286 287 287 286 285 285 285 285 285 286 286 286 286 286 286 287 287 288 288 290 289 290 291 291 293 293 294 295 297 300 300 301
285 285 285 286 286 286 287 287 285 285 284 284 284 285 285 285 285 285 285 286 286 286 286 286 287 288 288 289 289 290 292 293 293 295 299 301 301 302
285 286 285 285 285 286 286 285 284 283 284 284 284 283 283 283 283 284 284 285 285 285 285 286 286 287 288 288 290 289 289 290 292 294 296 299 300 301
285 285 285 284 286 285 284 283 283 284 283 283 283 283 283 283 283 283 283 283 284 285 284 285 286 286 287 288 288 288 288 290 292 292 293 296 298 300
285 284 284 286 284 283 283 282 283 283 282 282 282 282 282 282 282 282 282 283 283 284 284 285 285 286 286 288 287 287 287 289 291 292 297 300 300 301
284 284 285 283 282 282 282 282 282 281 282 282 282 282 282 281 282 282 283 283 284 285 285 286 286 285 285 285 285 285 287 290 291 292 294 298 301 302
284 284 282 282 281 281 281 281 281 281 281 281 281 281 281 281 282 283 283 284 286 286 284 285 284 284 284 285 286 285 287 290 290 290 291 291 294 296
283 282 281 281 280 281 280 280 281 281 281 280 280 280 281 281 282 283 286 286 286 285 283 282 281 282 284 286 289 290 290 290 290 291 291 291 290 293
282 281 280 280 280 280 280 280 280 280 280 280 280 280 281 281 283 284 284 284 285 285 284 282 281 282 285 286 285 288 289 289 290 290 291 291 291 291
280 280 280 280 280 280 280 280 280 279 279 279 280 281 281 282 284 284 283 283 284 284 284 282 281 281 286 285 284 286 288 289 288 288 290 290 290 292
280 280 280 280 279 279 279 279 279 279 279 280 280 280 281 283 283 283 283 283 285 284 284 283 280 280 282 283 284 285 286 287 287 288 289 289 290 292
279 279 279 279 279 279 279 279 279 279 280 280 280 281 282 283 283 283 283 284 286 285 284 284 282 282 282 284 284 284 285 286 286 287 287 288 289 289
279 278 278 279 279 279 279 279 279 279 279 280 281 282 283 282 283 283 283 284 285 286 285 284 283 284 283 283 284 285 285 285 286 287 287 287 287 288
278 278 278 278 278 278 278 278 278 279 280 281 282 283 281 282 283 284 284 285 286 286 286 286 284 284 284 284 284 284 285 286 286 286 285 286 287 288

GFSNE_925_thetae_030.txt.gz
Theta_e
289 290 290 290 290 291 291 291 291 291 290 290 289 289 289 289 290 291 291 291 291 290 292 292 293 293 294 294 294 295 296 297 297 299 300 301 306 308
288 288 289 289 290 290 290 290 289 289 289 289 289 289 288 289 289 289 289 289 290 290 291 292 292 293 292 292 294 294 295 295 295 296 298 300 302 305
287 288 288 288 289 289 289 289 288 288 288 288 288 288 289 288 288 288 288 289 290 290 290 291 290 290 291 292 293 293 293 294 295 296 297 299 301 304
287 287 287 288 288 288 288 288 288 287 287 288 288 288 288 288 288 288 288 289 290 290 289 288 289 290 291 292 291 291 292 294 295 295 296 297 298 300
286 287 287 287 287 288 287 287 287 287 288 288 288 288 288 287 287 288 289 288 287 287 287 287 288 288 289 290 291 292 293 293 294 295 296 297 298 300
286 286 286 287 287 287 287 287 288 288 287 287 288 288 287 287 288 287 287 286 286 286 286 286 287 288 289 290 291 291 292 291 292 294 296 297 298 299
285 286 286 286 287 287 287 287 287 287 288 288 287 287 288 286 286 285 285 285 285 285 286 286 287 287 287 288 288 289 290 292 293 294 295 296 299 299
285 286 286 285 286 286 286 286 287 288 287 287 288 285 285 284 285 284 284 285 286 286 286 286 286 286 286 287 288 289 292 292 295 295 294 294 296 297
285 285 285 285 285 285 286 286 287 287 287 286 285 284 284 284 284 285 285 286 286 285 285 285 285 286 286 287 287 289 289 290 293 293 294 295 296 297
285 285 285 285 285 286 286 286 287 286 285 284 284 284 285 285 285 285 284 284 284 284 284 285 285 286 285 285 286 287 288 289 290 291 293 293 294 297
285 285 285 285 285 285 286 287 285 284 283 283 284 284 284 283 283 283 284 284 284 284 283 284 284 284 284 284 285 286 288 289 289 291 292 294 295 298
285 285 284 284 284 286 286 285 284 283 283 284 282 281 282 282 282 282 283 283 283 283 283 283 283 284 285 285 286 287 286 288 289 289 291 294 295 298
285 284 284 283 286 285 284 283 282 284 283 281 281 281 281 281 281 281 281 282 282 282 282 284 284 284 285 285 286 286 287 286 287 287 288 292 294 296
284 283 283 285 283 283 282 282 282 282 281 281 281 281 281 281 281 281 281 282 282 283 283 284 284 285 285 285 285 285 284 284 285 286 290 291 293 296
283 284 284 282 281 281 281 281 281 280 281 281 281 281 280 280 280 281 282 282 284 285 285 284 283 282 283 283 284 284 285 286 286 289 290 293 295 296
284 283 282 280 280 280 280 280 280 280 281 281 280 280 280 280 281 281 282 284 284 285 284 283 283 282 281 283 284 286 286 286 289 290 291 294 297 300
283 281 280 279 279 279 280 280 280 280 280 280 280 280 280 281 281 281 283 283 283 284 284 283 282 281 282 283 286 286 289 289 290 290 292 292 294 296
281 279 279 279 279 279 279 279 279 280 279 279 279 280 280 280 281 282 283 283 283 284 284 283 281 281 284 285 285 287 288 289 290 291 292 293 292 293
279 279 279 279 279 279 279 279 279 279 279 279 279 280 280 281 282 283 283 283 283 285 284 282 281 281 283 284 285 287 287 288 290 290 292 292 291 291
279 279 279 278 278 279 279 279 279 278 278 279 280 280 281 281 282 282 283 283 285 285 284 283 282 283 280 281 283 287 287 288 290 291 291 292 292 292
279 278 278 278 278 278 278 278 278 278 279 279 279 280 281 282 281 282 283 285 286 285 285 283 283 284 284 285 286 286 287 287 288 287 290 291 291 292
277 278 278 278 278 278 278 278 278 278 279 279 280 280 282 282 281 282 283 284 285 286 285 284 284 284 284 285 285 286 286 286 288 288 289 289 289 291
277 277 277 277 277 277 277 277 278 278 278 279 280 281 283 282 282 283 284 284 285 286 285 284 283 284 284 285 286 286 286 285 286 287 288 290 290 291

GFSNE_925_thetae_033.txt.gz
Theta_e
287 287 287 287 288 288 288 289 289 289 288 288 288 288 288 287 287 288 288 288 288 289 290 290 291 292 293 294 294 294 293 294 295 296 297 297 298 298
286 286 286 286 287 287 288 288 288 288 288 287 287 287 287 287 288 288 287 287 287 288 289 290 291 291 292 293 292 291 292 293 294 294 295 297 297 297
286 286 286 286 286 286 287 287 287 287 287 287 287 287 287 287 287 287 287 287 287 288 289 290 290 290 290 289 290 291 291 293 294 294 294 296 297 298
286 286 285 286 286 286 286 287 286 286 286 286 287 287 287 287 287 287 286 287 287 287 287 288 288 288 288 288 289 290 290 290 291 292 293 293 295 297
286 286 285 285 285 286 286 286 286 287 287 287 287 287 286 287 286 286 286 285 285 285 285 285 285 286 287 288 289 289 290 291 292 292 293 294 295 295
286 285 285 285 285 286 286 286 287 286 286 286 286 287 286 286 286 284 284 284 284 284 284 284 285 286 286 287 287 288 288 289 290 290 291 292 293 294
286 285 285 285 285 285 286 286 286 286 287 288 287 286 287 284 284 283 284 284 284 284 284 285 285 286 285 285 285 286 286 288 289 291 292 293 294 294
286 285 285 285 285 285 285 285 286 287 287 287 287 285 284 284 283 283 284 285 285 285 285 284 284 284 284 284 285 286 287 289 290 289 293 292 293 295
285 285 285 285 285 285 285 285 286 286 287 286 285 284 284 283 283 285 284 284 284 284 283 284 283 284 284 284 285 285 287 287 287 289 290 291 293 294
285 285 284 284 285 285 285 285 286 285 284 284 283 283 284 284 284 283 283 283 283 283 283 283 283 283 283 283 283 285 286 287 287 289 289 291 292 292
284 284 285 284 284 284 286 286 284 283 282 283 284 283 282 282 282 283 282 282 282 282 282 282 282 282 282 283 283 284 285 287 289 290 290 291 292 293
285 284 284 283 283 286 285 284 282 282 283 283 281 280 280 281 282 281 281 281 282 282 282 282 283 283 284 284 284 285 285 286 286 287 289 290 290 291
284 284 283 283 286 284 283 281 282 283 282 280 280 280 281 281 281 281 281 281 281 282 282 284 284 284 284 284 285 285 285 285 285 286 286 287 289 291
284 283 283 285 282 281 281 281 282 282 280 280 281 281 281 280 280 280 280 281 281 282 282 284 284 284 283 282 282 284 284 284 284 284 285 286 288 290
283 284 283 281 280 280 280 281 281 280 280 280 281 280 280 280 280 280 281 281 282 283 283 283 284 284 282 281 281 283 285 285 286 286 286 287 289 290
283 281 280 279 279 279 279 279 279 280 280 280 280 280 280 280 280 281 281 281 283 283 283 284 284 282 281 280 281 283 285 287 289 289 290 291 291 292
282 279 279 279 279 279 279 279 279 279 280 279 279 279 279 280 280 281 282 282 283 283 283 284 283 282 282 282 282 285 287 289 290 290 292 294 295 297
280 278 279 279 279 279 279 279 279 279 279 279 279 279 280 280 280 282 282 282 283 283 285 284 283 282 283 284 285 287 288 289 290 291 292 293 292 296
278 278 278 278 278 278 278 278 278 278 278 278 278 279 279 280 281 282 281 282 283 285 285 283 283 282 283 284 284 287 287 289 292 291 291 291 292 294
278 278 278 278 278 278 278 278 278 277 277 278 279 279 279 280 280 281 281 283 285 285 284 283 283 284 282 283 281 287 289 289 289 291 291 291 291 291
278 277 277 278 278 277 277 277 277 277 278 278 278 279 279 280 282 281 281 284 285 284 283 283 283 285 285 286 286 287 288 290 290 290 292 292 292 292
277 277 277 277 277 277 277 277 277 277 277 278 278 278 280 280 282 282 282 283 284 284 284 283 285 285 285 286 286 285 287 289 290 291 291 291 292 293
277 277 277 276 276 276 276 276 276 277 277 278 278 279 280 281 283 283 283 283 284 285 284 284 284 284 285 286 286 285 286 288 289 290 290 291 291 291

GFSNE_925_thetae_036.txt.gz
Theta_e
286 286 286 286 285 285 286 287 287 287 287 287 287 287 286 287 286 287 287 287 288 288 288 289 289 290 291 292 292 293 294 294 295 295 294 294 295 297
286 286 286 285 285 285 286 286 286 286 286 287 286 286 286 286 286 287 287 287 287 287 288 288 289 290 291 291 292 293 292 293 292 293 294 295 296 297
286 286 285 285 285 285 285 285 285 286 286 286 286 286 287 287 286 286 286 286 286 286 287 287 287 288 288 289 290 290 291 290 291 292 293 294 295 296
286 286 285 285 285 285 285 285 285 285 285 286 287 286 286 286 286 286 286 286 286 285 284 285 286 286 287 287 288 288 289 290 290 291 291 292 293 294
286 285 285 285 285 284 285 285 285 286 286 285 285 285 286 286 286 286 285 284 283 283 284 284 285 285 286 287 287 288 289 289 290 290 291 291 292 293
286 286 286 285 285 285 285 285 286 285 285 285 286 286 286 286 285 284 283 283 283 283 283 284 285 285 285 286 286 287 287 288 288 288 289 290 290 292
286 286 285 285 285 285 286 285 285 285 286 287 286 285 286 284 283 283 283 283 283 284 284 283 284 284 284 284 284 284 285 285 286 287 288 289 290 291
285 285 285 284 284 285 284 285 285 286 285 286 286 284 283 283 283 283 283 285 283 283 283 283 283 283 283 283 283 284 285 286 287 288 289 290 291 292
284 284 284 284 284 284 284 284 285 286 285 284 283 283 283 283 284 284 283 283 283 283 282 282 282 282 282 282 283 284 285 286 286 287 288 289 289 290
284 284 284 284 284 284 284 285 284 283 283 282 282 283 284 283 283 283 283 283 282 282 281 282 282 282 282 282 283 284 285 285 286 287 288 289 289 290
284 284 284 284 283 284 286 284 283 281 281 282 284 283 282 282 282 283 282 282 281 282 281 281 282 282 282 282 283 284 285 286 286 287 289 290 290 291
284 284 283 283 284 286 284 282 281 281 282 283 280 280 280 280 281 281 281 281 281 281 281 282 282 283 284 284 284 284 284 284 285 286 287 288 289 290
284 283 283 283 284 283 282 281 281 284 282 279 280 280 281 281 280 280 280 280 281 281 281 282 283 283 284 284 284 283 282 282 283 284 285 287 288 289
284 283 283 283 282 281 281 281 282 282 279 280 280 280 280 280 280 280 280 280 280 281 281 281 282 283 283 284 283 282 282 282 283 284 284 285 287 288
283 283 282 281 280 279 280 281 280 279 279 280 280 280 279 279 279 280 280 281 281 282 282 283 283 283 283 282 282 281 283 283 284 285 285 285 285 286
283 281 280 279 279 279 279 279 279 279 280 280 279 279 279 279 279 280 280 281 282 282 283 284 284 283 282 280 281 282 283 284 287 288 289 288 287 287
281 279 278 278 278 278 278 279 279 279 279 278 278 278 278 279 279 279 281 281 282 282 284 285 283 283 283 283 282 285 288 288 290 290 291 293 289 289
279 278 278 278 278 278 278 278 278 278 278 278 277 278 278 279 279 280 280 281 281 283 285 284 283 283 284 285 286 287 289 289 291 290 292 294 294 295
278 278 278 277 278 278 278 278 277 277 277 277 277 278 278 278 279 280 280 281 282 284 284 283 283 283 284 285 286 288 289 290 291 291 291 292 292 293
277 277 277 277 277 277 277 277 277 277 277 277 278 277 278 278 279 280 281 282 284 284 284 283 283 285 284 284 283 284 289 290 290 291 292 292 291 292
277 276 277 277 277 277 277 276 276 276 277 277 277 277 278 278 279 280 282 284 284 283 284 283 284 286 286 287 286 288 289 289 290 290 291 292 292 292
276 276 276 276 276 276 276 276 276 276 276 276 277 277 278 279 280 280 283 282 283 283 283 283 285 285 285 285 286 287 289 290 290 290 290 291 291 291
276 276 276 276 275 275 276 275 275 276 276 277 277 278 279 279 280 281 283 283 283 284 284 283 284 285 285 285 286 288 289 289 289 289 290 291 291 291

GFSNE_925_thetae_039.txt.gz
Theta_e
286 286 286 286 285 285 284 285 285 285 285 285 285 286 286 285 286 286 286 286 287 288 288 288 288 289 290 290 291 292 292 293 294 295 296 296 297 298
286 286 286 286 285 285 285 284 284 284 285 285 285 285 285 286 286 286 286 286 287 287 287 288 288 288 288 289 289 289 291 291 292 294 295 295 296 296
286 286 286 285 285 285 285 284 284 284 284 285 285 285 285 285 285 285 285 285 286 286 287 287 286 286 287 287 288 289 289 290 291 292 293 293 294 294
286 286 286 285 285 285 284 284 284 284 284 285 285 285 284 285 285 285 286 286 285 285 284 285 285 286 286 287 287 288 289 289 289 290 290 291 292 293
286 285 285 285 285 284 284 284 284 285 285 285 284 285 285 285 285 285 285 283 283 283 283 284 284 285 286 286 287 287 288 288 289 290 290 290 291 292
285 285 285 284 284 285 285 285 285 284 284 285 285 285 285 285 284 283 282 282 283 283 283 284 284 284 284 284 285 286 286 286 287 287 288 289 290 290
285 284 284 284 284 285 285 284 284 285 285 285 285 284 283 283 282 282 282 283 283 283 283 283 282 282 282 283 283 284 284 285 286 286 287 287 288 289
284 284 284 283 283 284 284 284 285 286 286 285 284 283 282 282 282 282 284 283 283 283 283 283 283 282 282 282 282 283 285 285 286 287 288 288 289 289
284 284 283 283 284 284 283 284 285 285 284 283 282 281 282 282 284 283 283 283 283 283 283 282 282 281 282 282 282 283 284 285 286 287 287 288 288 289
284 284 283 284 284 284 285 286 283 283 282 282 282 283 284 283 282 283 283 283 282 282 281 282 281 281 281 281 282 283 284 285 286 287 287 288 288 289
284 284 284 284 283 285 285 283 282 281 281 282 284 282 281 282 282 283 282 281 281 281 281 281 281 281 281 282 282 283 285 285 286 287 287 287 288 289
285 283 283 283 284 285 283 282 281 281 282 282 280 279 280 280 281 281 281 280 280 281 281 281 281 282 283 283 283 283 284 284 285 285 286 287 288 288
283 283 283 283 284 283 282 281 281 283 282 279 279 280 280 280 280 280 280 280 280 280 280 282 282 282 282 283 284 283 283 283 284 283 284 286 287 289
284 283 283 283 282 281 281 281 282 281 279 279 279 280 279 279 279 279 279 279 280 280 281 281 282 282 283 283 283 283 283 283 283 283 283 283 285 287
283 283 282 281 280 279 279 280 280 278 279 279 279 279 278 278 278 278 279 279 280 281 282 282 283 283 284 284 283 283 284 284 284 284 284 284 285 285
282 281 280 279 279 279 278 278 278 278 279 279 278 278 278 278 278 278 279 279 280 281 282 283 285 284 283 283 283 283 284 286 288 289 289 288 286 285
281 279 278 278 278 277 278 278 278 278 278 277 277 277 277 277 278 278 279 279 280 281 282 284 284 283 284 284 283 285 288 290 290 290 290 290 286 286
279 277 277 277 277 277 277 277 277 277 277 277 277 277 277 277 278 279 278 279 281 282 283 284 284 283 285 285 287 288 289 291 290 291 291 293 291 288
277 277 277 277 277 277 277 277 277 277 276 276 276 276 278 277 278 278 278 280 281 283 284 284 284 284 286 286 286 289 287 290 291 292 291 291 292 294
277 276 276 276 276 277 277 277 276 276 276 276 277 277 277 277 278 278 279 280 283 284 283 284 284 284 286 285 285 286 290 289 290 291 291 291 291 293
276 276 276 276 276 276 276 276 276 276 277 276 276 277 277 277 278 279 279 282 284 282 283 283 284 285 286 286 288 289 289 290 290 290 290 291 291 291
275 276 275 275 275 275 275 275 275 275 276 276 276 277 277 278 279 280 280 281 283 283 282 283 285 285 285 285 286 288 289 290 290 290 290 290 291 291
275 275 275 275 275 275 275 275 275 275 276 276 276 277 277 278 279 281 281 283 283 284 283 282 284 285 286 285 287 287 288 288 289 290 290 290 290 290

GFSNE_925_thetae_042.txt.gz
Theta_e
286 286 285 286 285 285 285 285 284 284 284 284 284 284 284 284 285 285 285 285 286 287 288 288 288 289 289 290 290 291 291 290 292 293 294 295 296 297
286 286 286 286 285 285 285 285 284 283 284 284 284 284 284 284 285 285 284 285 285 286 286 287 287 288 288 288 289 289 289 290 291 291 292 293 294 296
286 286 286 285 285 285 285 284 284 283 284 284 284 284 284 284 284 284 284 285 285 285 286 286 286 286 287 287 288 289 289 289 290 291 291 292 293 294
286 285 285 285 284 284 284 284 284 283 283 284 284 284 284 284 284 285 285 284 284 284 284 284 285 286 286 287 287 288 289 289 289 289 290 291 291 292
285 285 284 284 284 284 284 284 284 284 285 284 284 284 284 285 284 283 282 282 282 282 283 283 284 285 286 286 287 287 288 288 288 288 289 289 290 291
285 284 283 283 284 284 284 285 285 284 284 284 284 285 285 283 282 282 282 282 282 282 283 283 284 284 284 284 285 285 285 286 286 287 287 288 289 289
284 284 284 284 284 285 285 284 284 285 285 286 285 283 282 282 282 282 282 282 283 282 283 283 283 282 282 283 283 283 284 284 285 286 287 287 288 289
284 284 284 283 283 284 284 284 285 286 285 284 283 282 282 281 282 282 283 282 283 283 283 283 282 282 282 282 282 283 284 285 286 287 287 288 289 289
284 284 284 284 284 283 283 284 285 284 283 283 282 281 281 282 283 282 282 283 283 282 282 282 281 281 281 281 282 283 284 285 286 286 287 288 288 289
284 284 284 284 284 284 285 286 283 282 282 282 282 283 284 283 282 282 282 282 282 281 281 281 281 281 281 281 282 283 284 285 286 286 287 288 288 289
284 284 284 283 283 284 285 283 282 282 281 282 284 282 281 282 282 282 281 281 281 280 280 280 281 281 281 282 282 283 284 285 286 286 287 288 288 289
284 283 283 283 284 285 283 283 281 281 282 283 279 279 279 279 280 280 280 279 280 280 281 281 281 282 282 283 283 283 283 284 285 286 287 288 288 288
283 283 283 283 284 283 282 281 281 283 282 279 278 279 279 279 279 279 278 278 279 279 279 281 281 281 281 282 283 284 284 284 284 284 285 286 287 288
283 283 282 283 282 281 281 281 282 281 278 278 278 279 279 278 278 278 278 278 278 279 279 279 280 281 282 283 284 284 284 285 285 284 284 285 286 286
283 283 282 281 280 279 279 280 280 278 278 278 279 278 278 277 277 277 277 278 278 279 280 281 282 282 283 284 284 284 286 285 285 286 286 286 285 284
282 281 280 279 278 278 277 277 277 278 279 278 278 277 277 277 277 277 277 278 279 279 281 282 283 284 284 284 284 285 286 286 289 290 290 290 287 285
281 279 277 277 277 277 277 277 277 277 278 277 277 277 277 277 277 277 278 278 278 280 281 283 284 284 284 284 285 285 288 289 289 290 290 290 286 285
279 277 277 277 276 276 277 277 277 277 277 276 276 276 276 276 277 278 277 278 279 280 281 284 283 284 285 286 288 288 289 289 289 290 291 291 291 287
277 276 276 276 276 276 276 276 276 276 276 276 276 276 277 277 277 277 277 278 279 280 283 283 283 284 285 286 287 289 288 289 290 291 291 291 291 291
276 276 276 276 276 276 276 276 276 276 276 276 277 276 276 276 277 277 278 279 281 283 282 283 284 284 286 285 285 287 289 289 290 290 290 291 292 293
275 275 275 275 275 275 275 275 275 275 276 276 276 276 276 276 277 277 278 281 283 281 282 283 284 285 286 286 287 288 288 289 289 290 290 291 291 291
275 275 275 275 275 275 275 275 275 275 275 275 276 276 276 277 277 278 279 281 281 283 282 282 285 285 286 285 287 287 288 288 289 289 290 290 289 290
274 274 274 274 274 274 274 274 274 275 275 275 276 276 277 278 279 279 281 282 283 283 283 282 283 285 285 285 286 286 287 288 288 289 289 290 290 290

GFSNE_925_thetae_045.txt.gz
Theta_e
286 286 286 286 285 285 285 285 286 287 288 286 285 285 285 285 284 285 285 285 286 286 287 287 287 288 288 289 290 290 291 291 292 292 293 293 293 294
286 286 285 285 285 285 285 285 285 285 287 285 285 285 285 284 285 285 285 285 285 285 286 286 287 287 288 288 289 289 290 290 290 291 292 292 293 294
286 285 285 285 285 285 284 284 284 284 286 285 285 285 285 285 285 285 285 285 284 284 285 285 286 286 287 288 288 288 289 289 290 290 291 292 292 293
286 285 285 284 284 284 284 284 284 284 284 285 284 285 285 285 285 285 284 283 283 283 283 284 285 286 286 287 288 288 288 289 289 289 290 290 291 292
286 285 284 283 283 283 284 284 284 284 284 285 285 285 285 285 284 283 283 283 283 283 283 283 284 285 286 286 287 287 287 288 288 289 289 289 290 290
286 284 284 284 283 284 284 285 285 284 285 285 285 286 285 284 283 283 283 283 283 283 283 283 284 284 285 285 285 286 286 286 286 287 288 288 288 289
285 284 284 284 285 285 285 285 284 285 285 286 285 284 284 283 283 283 283 283 284 283 283 283 284 283 283 284 284 284 284 285 286 286 287 288 288 288
284 284 284 284 283 284 284 284 285 286 287 285 284 284 283 283 283 283 284 283 285 283 283 283 283 283 283 283 283 284 285 285 286 286 287 288 289 289
284 284 283 283 284 283 283 284 285 285 284 283 283 283 283 283 283 283 283 283 283 283 283 283 282 283 283 282 283 284 284 285 286 287 287 288 288 288
284 283 283 283 283 284 284 286 284 283 283 282 282 283 284 283 282 283 282 282 282 282 282 283 282 282 282 283 283 284 285 285 286 287 288 288 288 289
283 283 283 283 283 284 285 284 283 282 281 282 283 283 281 282 282 282 282 281 282 281 281 281 282 282 282 283 283 284 285 285 286 287 288 288 289 289
284 283 283 283 283 285 284 283 282 281 282 283 281 280 280 280 280 280 280 280 280 281 282 281 281 282 283 283 284 284 284 285 286 287 288 288 289 289
283 283 283 283 284 283 283 282 281 283 282 280 279 280 280 280 280 279 279 278 279 279 279 280 281 281 281 283 284 284 284 285 286 286 287 287 288 288
284 283 283 283 282 281 281 281 282 281 279 279 279 280 280 279 278 278 278 277 277 278 278 278 279 280 282 284 285 285 286 286 287 287 287 288 288 288
283 283 282 281 280 279 279 280 280 278 278 279 279 279 278 278 277 277 278 278 278 278 279 280 280 281 282 284 286 286 287 287 287 288 289 290 289 288
282 282 280 279 278 278 278 278 278 278 279 279 278 278 278 278 278 278 277 278 279 279 280 281 282 283 285 285 286 286 287 289 289 290 290 290 290 287
281 280 278 278 277 277 277 278 278 278 278 277 277 277 277 277 277 277 278 279 279 280 280 282 283 284 284 285 287 288 289 290 290 290 290 290 291 287
279 277 277 277 277 277 277 277 277 277 277 277 276 277 277 277 277 278 278 278 279 280 281 282 284 284 286 287 288 289 289 289 289 290 291 291 292 287
277 277 276 276 276 276 276 276 276 276 276 276 276 276 277 278 277 278 278 279 280 281 283 284 283 285 286 288 288 288 288 289 289 290 290 291 291 289
276 276 276 276 276 276 276 276 276 276 276 276 277 277 276 277 277 278 278 279 281 283 283 284 284 285 287 288 287 287 289 289 289 290 290 290 291 291
275 275 275 275 275 275 275 275 275 275 276 276 276 276 277 277 277 278 279 281 282 283 284 284 284 285 285 286 289 289 288 289 289 289 289 290 290 291
275 274 275 274 274 274 275 275 274 275 275 275 276 276 277 277 278 279 280 281 282 283 284 284 284 285 286 287 288 288 288 288 288 289 289 289 289 290
274 274 274 274 274 274 274 274 274 275 275 275 276 276 277 278 279 280 281 282 283 284 284 283 284 285 285 286 287 288 287 288 288 289 289 289 289 290

GFSNE_925_thetae_048.txt.gz
Theta_e
289 289 288 288 288 288 288 288 288 289 290 289 288 288 287 287 286 286 286 286 286 287 287 287 288 288 289 289 290 290 291 291 292 292 293 293 294 295
288 288 288 288 288 287 287 287 287 287 289 287 287 287 287 286 286 287 286 286 286 286 287 287 287 288 288 288 289 290 290 291 291 292 292 293 293 294
288 288 287 287 287 286 286 286 286 286 288 287 287 286 286 286 287 286 286 286 286 285 285 286 286 287 287 288 289 289 290 290 291 291 292 292 293 293
288 287 287 286 286 286 286 286 286 286 286 288 286 286 286 287 287 286 286 285 285 285 285 286 286 287 287 288 288 289 289 289 290 290 291 291 292 292
288 287 287 286 286 286 285 286 286 286 286 287 287 287 287 287 287 285 285 285 285 285 285 285 286 286 287 287 287 288 288 288 289 289 289 289 290 291
287 287 286 285 285 285 286 286 286 286 286 286 287 287 288 286 285 285 285 285 285 285 285 285 286 286 286 286 286 287 287 287 287 288 288 288 289 289
287 286 285 285 285 285 285 285 285 285 286 287 288 287 286 286 285 285 285 285 285 285 285 285 285 285 285 286 286 286 286 286 287 287 288 288 289 289
286 286 285 285 285 285 285 285 285 286 287 287 286 286 285 284 284 285 285 285 286 285 285 285 285 285 285 285 285 286 286 286 287 288 288 289 289 289
285 285 285 285 285 284 284 285 285 286 286 285 284 284 284 284 284 285 284 284 284 284 284 285 284 285 285 285 285 286 286 287 288 288 288 289 289 290
285 285 285 285 284 284 285 285 286 285 284 284 283 283 284 284 284 283 283 283 284 284 284 285 284 284 285 285 285 285 286 287 287 288 288 289 290 290
285 285 285 284 284 284 285 286 284 284 283 283 284 284 284 283 283 283 283 283 283 283 282 283 284 284 283 284 285 286 287 287 287 288 289 289 290 290
285 285 284 284 284 285 285 284 284 283 283 284 284 282 282 282 282 282 282 282 282 283 283 283 283 283 284 284 285 284 286 287 287 288 289 289 290 290
285 284 284 284 284 284 283 283 282 283 283 283 282 282 282 283 283 282 281 281 281 281 281 281 281 281 282 284 284 285 285 288 288 289 289 289 290 291
284 284 284 284 283 282 282 281 282 282 281 281 281 281 282 281 281 280 280 279 279 279 279 279 280 281 282 284 285 285 286 288 289 289 289 289 290 290
284 283 283 283 281 280 280 281 281 281 281 280 281 281 281 280 280 280 280 280 280 280 281 281 281 282 282 284 285 286 288 288 289 290 290 290 290 290
283 283 282 281 280 280 280 280 280 280 280 280 280 280 280 280 280 280 280 280 281 281 282 282 283 283 284 285 286 287 287 289 290 290 289 290 291 290
282 281 280 280 280 280 280 280 280 280 280 280 279 279 279 280 280 280 280 281 281 282 282 283 284 285 285 285 287 288 289 290 290 290 289 291 291 291
280 280 279 279 279 279 279 279 279 279 279 279 278 279 279 279 280 280 280 281 282 282 283 284 285 286 287 288 289 290 289 289 289 290 290 291 291 290
279 279 279 279 279 278 278 278 279 279 278 278 278 278 279 280 279 280 281 282 282 283 284 285 285 287 288 289 289 289 289 289 289 290 290 290 291 291
278 278 278 278 278 278 278 278 278 278 278 277 278 279 278 279 279 280 281 282 283 284 284 285 286 287 287 288 288 288 289 289 289 289 290 290 290 291
278 277 277 277 277 277 277 277 277 277 278 278 277 278 278 279 280 280 281 282 284 284 285 285 285 286 286 287 289 290 289 289 289 289 290 290 291 291
277 277 277 277 277 277 277 277 277 277 277 277 278 278 278 279 280 281 282 283 284 284 285 285 286 286 287 288 289 289 290 289 289 289 290 289 290 290
276 276 276 276 276 276 276 276 276 276 277 277 277 278 279 280 280 282 283 284 285 286 285 285 286 286 287 288 288 289 289 289 289 289 290 290 290 290

GFSNE_925_thetae_051.txt.gz
Theta_e
290 291 290 290 290 290 289 289 290 290 290 290 289 289 288 288 288 287 287 287 288 288 288 289 289 289 289 289 290 291 291 291 293 293 294 294 294 295
290 290 290 290 289 289 289 288 288 288 289 288 288 288 288 287 287 287 287 288 287 287 288 288 288 288 289 289 289 290 291 291 292 292 293 294 294 295
290 290 289 289 288 288 287 287 287 287 288 288 288 287 287 287 287 287 288 287 287 286 286 287 288 288 289 289 289 289 290 291 291 292 293 293 294 294
290 289 289 288 288 287 287 287 287 287 287 288 287 287 287 287 287 288 288 286 286 286 286 287 288 288 288 288 289 289 289 290 290 290 291 292 292 293
289 289 288 288 287 287 287 287 287 287 287 287 287 287 287 287 288 287 286 286 286 286 286 286 287 287 288 288 288 289 289 289 289 289 290 290 291 291
289 288 288 287 286 286 286 286 286 286 286 286 286 287 287 287 286 286 286 285 285 285 286 285 286 286 287 287 287 288 288 288 288 289 289 289 290 290
288 288 287 286 286 286 286 286 286 286 286 286 287 288 286 286 286 285 285 285 285 286 285 285 286 285 285 286 286 286 287 288 288 289 289 290 290 290
288 287 286 286 286 286 286 286 286 286 287 287 287 286 286 285 285 285 284 285 285 284 285 284 284 285 285 285 286 287 287 288 288 289 289 290 290 291
287 286 286 286 286 286 285 285 285 286 286 286 286 285 285 284 284 284 285 285 284 284 284 285 285 285 285 285 285 287 287 288 288 289 289 290 290 290
286 286 286 286 286 286 286 285 286 286 285 285 285 284 284 285 285 285 284 284 284 284 284 284 284 283 284 285 284 285 286 288 288 289 289 290 290 290
286 286 286 286 285 286 286 286 285 284 284 284 284 284 285 285 284 284 284 284 284 283 283 283 283 284 283 283 284 285 286 287 287 288 289 290 291 291
285 285 285 285 286 285 285 285 284 283 283 283 284 283 283 283 283 283 284 284 283 282 282 283 283 282 282 283 284 283 284 285 287 288 290 290 290 291
285 285 285 285 285 285 284 284 283 283 283 283 282 282 282 282 282 283 282 282 282 281 281 281 281 281 281 281 282 283 283 285 286 287 289 290 290 291
285 284 284 284 285 284 283 282 283 283 282 282 282 281 281 282 282 281 281 280 280 281 281 281 281 281 281 282 282 283 284 285 287 288 289 290 290 290
284 284 284 284 283 282 281 282 282 281 281 281 282 282 281 281 280 281 281 281 281 281 281 281 282 282 283 283 283 284 286 286 287 288 289 290 289 289
284 283 283 282 281 281 281 281 281 281 281 281 281 281 280 280 280 280 281 281 281 282 282 282 283 283 284 285 285 286 287 287 288 289 289 289 290 290
283 282 281 281 280 280 280 280 280 280 280 280 280 280 279 280 280 280 281 281 282 282 282 283 283 284 285 286 287 287 287 289 290 289 289 289 290 290
281 280 280 280 280 280 280 279 279 280 280 280 279 279 279 280 280 281 281 281 282 282 283 283 284 285 285 287 288 289 288 289 289 289 289 290 290 290
280 279 279 279 279 279 279 279 279 279 279 279 279 279 279 280 280 280 280 281 282 282 283 284 284 285 286 286 287 287 288 287 288 289 289 289 290 290
279 279 279 279 278 278 278 278 278 279 279 279 279 279 279 279 280 280 281 281 282 283 284 284 285 285 286 287 287 287 288 289 289 289 289 289 290 290
278 278 278 278 278 278 278 278 278 278 279 279 278 279 279 279 280 280 281 282 283 284 284 285 285 286 286 286 287 288 288 288 289 289 289 290 290 290
278 278 277 277 277 277 278 278 278 278 278 278 278 278 279 279 280 280 281 282 283 284 285 286 285 285 287 287 288 288 288 288 289 289 289 290 290 290
277 277 277 277 277 277 277 277 277 277 277 278 278 278 279 280 280 281 282 283 284 285 286 285 285 286 286 287 288 288 288 288 288 289 289 290 290 290

GFSNE_925_thetae_054.txt.gz
Theta_e
290 290 290 290 290 290 289 289 289 288 287 288 288 288 287 287 287 287 287 287 288 288 289 289 290 289 289 290 291 291 292 292 293 294 294 294 295 296
290 290 290 290 289 289 288 288 288 287 286 287 287 287 287 287 287 287 287 287 287 288 288 289 288 289 290 290 290 291 291 292 292 293 293 294 295 295
290 290 290 289 289 288 288 287 287 287 286 286 286 287 287 286 286 286 286 287 288 287 287 288 288 289 289 289 290 290 290 291 291 292 292 293 294 294
289 289 289 289 288 288 287 287 287 286 286 286 286 286 286 285 286 286 287 286 286 286 286 287 287 288 288 289 289 289 290 290 290 291 291 291 292 292
290 289 289 288 288 287 286 286 286 286 286 285 285 285 285 285 286 287 285 285 285 285 285 285 286 287 287 288 288 289 289 289 289 290 290 290 291 291
289 289 288 288 287 286 286 286 286 286 286 285 285 285 286 286 286 285 285 284 284 284 284 285 286 285 286 286 286 287 287 288 288 289 289 290 291 291
288 288 288 287 287 287 287 287 287 286 286 285 286 286 286 286 285 284 284 283 284 284 285 284 284 284 283 284 285 285 286 288 288 289 290 290 291 291
287 287 287 286 286 286 286 286 286 286 286 285 286 286 285 284 284 283 283 284 285 285 284 283 283 283 284 284 284 285 286 287 288 289 289 290 291 291
286 286 286 286 286 286 286 286 286 286 286 286 286 284 284 284 284 284 284 285 284 284 283 283 283 283 283 283 283 285 286 287 288 289 289 290 291 291
285 286 286 286 286 286 286 286 286 285 285 284 284 284 284 284 285 285 285 284 284 283 283 283 283 282 282 283 283 284 285 286 288 288 288 289 290 291
285 285 285 285 285 286 286 286 285 284 283 283 283 284 284 284 284 283 283 283 283 283 282 282 282 282 281 281 282 283 284 285 285 286 288 289 290 291
284 285 285 285 285 286 286 285 284 283 283 283 283 282 282 282 282 282 282 283 282 282 282 281 281 281 281 281 282 281 282 282 284 285 287 288 289 290
285 284 284 284 285 286 285 284 283 284 284 283 281 281 281 281 281 281 281 281 281 281 281 281 281 281 281 280 281 281 282 283 283 284 286 287 289 290
284 284 284 285 285 284 283 282 283 283 281 281 281 281 281 281 281 280 280 280 280 281 281 281 281 281 281 281 281 282 283 283 284 285 286 287 288 289
283 284 284 283 282 282 281 282 282 280 280 280 281 281 280 280 280 280 280 280 280 280 280 281 281 281 281 282 282 283 284 285 285 286 287 288 289 289
283 283 282 281 281 280 280 280 280 280 280 280 280 280 280 280 279 279 280 280 280 280 281 281 282 282 282 283 284 284 285 286 286 287 288 289 289 289
283 281 280 279 279 279 279 279 279 279 279 279 279 279 279 279 279 279 279 280 280 280 281 282 282 283 283 284 284 285 285 287 287 288 288 288 289 289
281 279 279 279 279 279 279 278 278 278 278 278 279 279 279 279 279 279 280 279 280 280 281 282 282 283 284 284 285 286 286 286 287 287 287 289 289 288
279 278 278 278 278 278 278 278 278 278 278 278 278 278 278 279 279 278 279 279 280 280 281 282 284 284 285 285 285 286 286 286 287 287 288 289 288 288
278 278 278 278 278 277 277 277 278 278 278 278 278 279 279 278 278 279 279 279 280 282 283 283 283 284 285 286 285 286 286 287 288 288 288 289 288 289
277 277 277 277 277 277 277 277 277 277 278 278 278 278 278 278 279 279 279 281 282 282 282 283 284 285 285 284 286 287 287 287 288 288 288 288 289 290
277 277 277 277 276 276 277 277 277 277 277 277 278 278 278 278 279 279 280 280 281 282 283 284 285 285 284 285 286 287 287 287 288 288 288 288 289 290
276 276 276 276 276 277 277 277 276 276 277 277 278 278 278 279 280 280 280 281 282 283 285 285 285 285 284 285 286 287 287 287 287 288 288 289 289 290

GFSNE_925_thetae_057.txt.gz
Theta_e
290 290 290 290 290 290 289 289 288 286 286 287 287 287 286 286 287 287 286 286 287 288 289 289 290 290 290 290 292 292 292 293 293 294 294 295 296 296
290 290 290 290 289 289 289 288 288 287 285 286 286 286 286 286 286 286 285 286 286 287 288 288 288 289 290 290 290 291 291 292 293 293 294 294 295 296
290 290 290 289 289 288 288 287 287 286 285 285 285 286 285 285 285 285 285 286 286 286 286 287 288 288 289 289 289 290 290 291 292 292 293 294 294 294
289 289 289 289 289 288 288 287 286 286 285 285 285 285 285 285 285 285 285 286 285 285 285 286 287 287 288 288 289 289 289 290 290 290 290 291 292 293
290 289 289 289 288 288 287 286 286 286 286 286 285 285 285 285 285 285 286 285 284 284 284 285 285 286 287 287 288 288 288 288 288 289 289 290 290 291
289 288 288 288 287 287 287 287 287 286 286 285 285 285 285 285 285 285 284 284 283 283 283 284 285 285 285 285 286 286 286 287 287 288 289 290 291 291
286 286 287 287 287 287 287 287 287 287 286 285 285 285 285 285 284 284 283 283 283 283 284 285 284 283 283 283 284 284 285 287 287 288 289 290 291 291
286 286 286 286 286 286 286 286 287 287 286 286 285 285 285 284 283 283 283 283 284 285 284 283 283 283 283 283 283 284 285 286 287 288 288 289 290 291
285 285 285 285 285 285 286 286 286 286 286 286 285 284 283 283 283 283 284 285 284 284 283 283 283 283 283 282 282 284 285 286 286 287 288 289 290 290
284 285 285 285 285 286 286 286 286 286 285 285 284 284 284 284 285 284 284 283 282 282 282 282 282 282 281 281 282 283 284 285 286 286 287 288 288 289
284 285 285 285 285 286 286 286 285 285 284 283 284 284 284 284 283 283 282 281 281 282 282 281 281 281 281 281 282 282 283 283 284 285 286 287 288 289
285 285 284 284 285 286 286 285 284 283 283 284 283 282 281 281 281 281 281 281 281 281 281 281 281 281 281 281 281 281 281 281 283 284 285 286 287 288
284 284 283 284 285 285 285 284 283 284 283 281 280 280 280 281 281 281 280 280 280 280 280 281 281 281 281 281 281 281 281 282 282 283 284 285 287 288
283 283 283 284 284 283 283 282 283 283 280 280 280 280 280 280 280 280 280 279 279 279 280 280 280 280 281 280 280 281 282 282 283 284 284 285 287 288
283 284 284 283 281 280 280 281 281 279 279 279 279 280 279 279 279 279 279 279 279 279 279 280 280 280 280 281 281 281 283 283 283 284 286 286 286 287
284 283 282 280 279 279 279 279 279 279 279 279 279 279 278 278 279 279 278 278 278 279 280 280 280 281 281 281 282 283 283 283 284 284 285 286 287 287
283 280 278 278 278 278 278 278 278 278 278 278 278 278 278 278 278 278 278 278 279 279 279 280 280 280 281 281 282 283 283 284 284 285 286 286 287 287
279 278 277 278 278 278 278 277 277 278 277 277 277 277 278 278 278 278 279 278 278 279 279 279 280 280 282 283 284 283 284 285 285 285 286 286 287 287
277 277 277 277 277 277 277 277 277 277 277 277 277 277 278 278 279 278 278 278 279 279 279 280 281 282 282 283 284 285 285 285 285 285 286 287 288 288
277 277 277 277 277 276 276 276 276 276 276 277 278 278 278 278 278 279 279 279 279 280 281 281 281 282 283 284 285 285 284 285 286 286 287 287 287 288
277 276 276 276 276 276 276 276 276 276 278 277 277 277 277 278 278 279 279 280 282 281 280 281 282 284 285 284 284 284 285 285 286 287 287 288 287 288
276 276 276 276 276 276 276 276 276 276 276 276 277 277 278 278 279 279 280 280 281 281 281 282 283 284 284 285 284 284 285 286 287 287 287 288 288 288
276 276 276 276 277 276 276 276 276 276 276 277 277 278 278 279 279 280 281 282 282 282 283 284 284 285 285 285 285 286 286 286 286 287 288 289 289 289

GFSNE_925_thetae_060.txt.gz
Theta_e
291 291 291 290 290 290 289 289 288 286 285 287 287 287 286 286 285 285 285 285 286 287 288 288 289 290 290 291 292 292 292 293 293 294 294 295 296 296
290 290 290 290 290 289 289 288 288 287 284 286 286 286 285 285 285 285 285 285 285 286 287 288 288 289 289 290 290 291 291 292 292 293 294 294 295 296
290 290 290 289 289 289 288 288 287 286 284 285 285 286 286 286 285 285 285 284 285 285 286 287 287 288 288 289 289 290 290 291 291 292 292 293 294 295
289 289 289 289 289 288 288 287 287 286 285 284 285 285 285 285 285 285 285 284 285 285 285 286 286 287 287 288 288 289 289 289 290 290 290 291 292 293
289 289 289 289 288 288 287 287 286 286 286 285 285 285 285 285 285 284 284 284 284 284 284 284 285 286 287 288 288 288 288 288 288 288 289 289 290 291
288 288 287 287 287 287 287 287 287 286 286 286 285 285 285 285 285 284 283 283 283 283 283 284 285 286 285 285 286 286 286 286 287 287 288 289 290 291
285 286 286 286 287 287 287 287 287 287 286 286 284 284 284 284 284 283 283 283 283 283 284 284 284 283 283 283 283 284 284 286 287 287 288 288 289 290
285 285 285 285 285 286 286 286 287 287 287 286 286 285 285 284 283 283 283 282 283 284 284 283 283 282 282 282 283 284 285 285 286 287 287 288 289 290
284 284 284 284 284 284 285 286 286 286 286 286 285 284 284 283 283 283 283 283 284 283 282 282 281 281 282 282 282 283 284 285 286 286 287 288 289 289
284 284 285 284 284 285 286 286 286 286 285 285 285 284 284 284 284 284 283 283 282 281 281 281 281 281 281 281 281 283 284 285 285 286 286 287 287 288
285 285 284 284 284 286 286 286 285 284 284 284 284 284 284 284 283 283 282 281 280 281 281 281 281 281 281 281 282 282 283 284 284 284 285 286 287 287
285 284 283 284 285 286 286 285 283 283 283 283 283 282 281 281 281 281 281 280 280 280 281 281 281 280 281 281 281 281 281 281 282 283 284 285 286 287
284 283 283 284 285 285 284 283 282 283 283 282 280 280 280 280 280 280 280 279 279 279 280 280 280 280 280 280 280 280 281 281 281 281 282 283 285 286
283 283 284 284 284 282 281 281 282 282 280 279 279 279 279 279 279 279 279 279 279 279 279 278 278 279 279 279 280 280 281 281 281 282 282 283 285 286
284 284 283 282 280 279 279 281 280 279 279 278 279 279 278 278 278 278 278 278 278 279 279 279 278 279 279 279 279 280 281 281 282 282 283 284 284 284
283 281 280 279 278 279 278 278 278 278 279 279 278 278 278 278 278 278 277 278 278 278 279 279 279 279 279 279 279 280 281 282 282 282 283 283 284 285
281 279 278 277 277 277 277 278 278 278 278 277 277 277 277 277 277 278 277 278 278 278 278 279 279 279 279 279 279 280 281 282 282 283 283 284 285 285
279 277 277 277 277 277 277 277 277 277 277 276 276 276 277 277 277 278 279 278 278 278 278 278 279 279 279 281 281 281 282 282 283 284 284 285 285 286
277 277 276 276 276 276 276 276 276 276 277 276 276 276 277 278 278 277 278 278 278 279 279 279 279 280 281 281 282 283 284 284 285 285 284 285 285 286
276 276 276 276 276 276 276 276 276 276 276 276 277 277 277 277 277 278 278 279 279 280 281 281 281 280 280 281 283 284 284 284 284 284 285 285 286 287
276 276 276 276 276 276 276 276 276 275 277 277 277 276 277 277 277 278 279 280 282 281 281 281 282 283 283 283 284 284 285 285 285 285 286 286 287 287
276 276 276 276 276 276 276 276 276 276 276 276 277 277 278 278 278 279 280 280 281 282 283 283 283 284 284 284 284 284 285 285 286 286 286 287 287 288
276 276 276 276 277 277 277 276 276 276 277 278 278 279 279 279 280 280 280 280 283 284 285 284 284 284 284 284 285 285 286 286 286 287 287 288 288 289

GFSNE_925_thetae_063.txt.gz
Theta_e
291 291 291 291 290 290 290 289 288 286 285 287 287 287 286 286 286 286 285 285 286 287 287 288 289 289 290 290 291 292 292 293 293 294 294 295 296 296
291 291 291 290 290 289 289 288 288 287 285 286 286 286 286 286 286 286 285 285 285 285 286 287 288 289 289 290 290 291 291 292 292 293 294 295 295 295
290 290 290 289 289 289 289 288 287 287 284 285 286 286 286 286 286 286 285 284 284 284 285 287 287 288 288 289 289 289 290 291 291 292 292 293 294 294
290 289 289 289 289 288 288 288 287 287 285 284 285 285 286 286 286 286 285 284 284 283 285 286 287 287 287 288 288 289 290 290 290 290 290 291 291 292
290 289 289 289 288 288 287 287 286 286 286 284 284 285 285 286 286 285 284 284 283 283 284 284 285 286 287 288 288 288 288 288 288 288 289 289 290 290
288 288 287 287 287 286 287 287 287 287 286 286 285 285 285 285 285 284 283 283 282 283 283 283 284 285 285 285 286 286 286 286 287 287 288 288 289 290
285 286 286 286 286 287 287 287 287 286 286 286 284 285 284 285 284 283 283 282 282 283 283 283 284 283 282 283 283 284 284 285 287 287 288 288 289 289
285 284 284 285 285 285 286 286 287 287 287 286 286 286 285 284 283 283 283 282 283 283 283 283 282 282 282 282 282 284 285 286 286 287 287 288 288 289
284 284 284 284 284 284 285 286 286 286 286 286 285 284 284 284 284 283 283 283 283 283 282 282 281 281 282 281 282 283 284 285 286 286 287 287 288 288
284 284 284 284 284 285 285 286 286 285 285 284 284 284 284 284 285 284 283 282 282 281 281 281 281 281 281 281 282 283 284 285 285 286 286 286 286 287
285 284 284 283 283 285 286 286 284 284 283 283 284 284 284 283 283 282 281 281 280 280 280 280 280 280 280 280 282 282 283 284 284 284 285 285 286 286
284 283 283 284 285 286 286 284 282 282 282 283 283 282 281 281 281 280 280 280 280 280 281 280 280 280 280 281 281 281 281 281 282 283 284 284 285 285
284 283 283 284 285 285 284 282 281 283 283 282 280 280 281 281 280 279 279 278 279 279 279 280 280 279 279 279 280 280 279 280 280 280 281 282 283 284
284 283 284 284 283 282 281 281 282 282 280 279 279 279 279 279 279 279 279 279 278 278 279 278 278 278 278 278 278 279 280 280 280 280 281 281 283 284
284 283 282 281 280 279 279 280 280 279 278 278 278 278 278 278 278 279 279 278 278 278 279 279 278 278 278 278 278 279 280 280 280 280 281 282 282 282
282 281 279 278 278 278 278 279 278 278 278 278 278 277 277 278 277 278 277 277 277 278 279 279 279 279 278 278 278 279 279 279 280 280 281 281 282 282
281 279 278 277 277 277 277 278 278 278 277 277 276 276 276 277 277 278 277 277 277 278 278 279 279 279 278 278 278 279 279 279 280 280 281 282 283 283
279 277 277 277 276 276 276 277 277 277 277 276 275 276 276 276 277 278 278 277 277 278 278 279 279 278 279 279 279 279 280 280 281 281 282 283 284 285
277 277 276 276 276 276 276 276 276 277 276 276 276 277 277 277 278 276 277 277 278 279 279 279 279 280 281 281 282 282 282 282 283 284 284 284 284 284
277 276 276 276 276 276 276 276 276 276 276 276 277 277 277 276 276 277 278 278 279 280 281 282 282 282 281 282 283 284 283 284 284 284 284 284 284 285
276 276 276 276 276 276 276 276 276 276 276 277 277 277 278 277 278 278 278 280 281 281 281 282 283 284 284 283 284 284 285 285 285 285 285 285 286 286
276 276 277 277 277 276 276 276 276 277 277 277 278 278 278 278 279 279 280 280 281 281 282 284 284 284 284 284 284 285 285 285 286 286 287 287 287 288
276 276 277 278 277 277 277 277 276 277 277 278 279 279 279 279 280 280 280 281 282 284 284 284 284 284 284 284 285 285 285 286 286 287 287 288 288 289

GFSNE_925_thetae_066.txt.gz
Theta_e
294 293 292 291 291 292 292 290 289 286 285 287 288 287 287 286 286 286 286 286 287 287 287 288 288 289 289 290 291 291 292 293 293 293 294 295 296 296
292 291 291 291 290 290 290 289 289 288 285 287 287 287 286 286 286 286 286 286 285 285 286 287 287 288 289 289 290 291 291 292 292 293 293 294 295 296
291 291 291 290 290 289 289 288 288 287 285 286 286 286 286 286 286 286 286 285 285 284 285 286 287 288 288 289 289 290 290 291 292 292 293 293 294 294
290 290 290 290 289 289 288 288 287 287 285 284 285 285 286 286 286 286 285 285 284 283 284 286 286 286 287 288 288 289 290 290 291 291 290 291 291 292
289 290 291 291 289 288 287 287 286 286 286 284 284 285 285 286 285 285 285 284 283 283 284 284 285 285 286 287 288 288 288 288 288 288 289 289 290 290
291 290 288 287 286 286 286 287 287 287 286 286 285 285 285 285 285 284 283 283 283 283 284 283 284 284 285 285 285 286 286 286 287 287 288 288 289 289
288 288 286 285 286 287 287 287 287 286 286 286 285 284 284 285 284 284 283 282 282 283 283 283 283 282 282 283 283 283 284 285 286 287 288 288 289 289
285 284 284 284 284 284 285 286 287 287 287 286 286 285 285 284 283 283 283 283 283 283 283 282 282 282 282 282 282 283 285 285 286 287 287 288 288 289
284 284 284 284 284 283 284 285 286 286 286 286 285 284 283 283 283 283 283 283 283 283 282 281 281 281 281 282 282 283 284 285 286 286 287 287 288 288
284 284 284 284 283 284 285 286 286 285 284 284 284 283 283 284 284 283 283 282 281 281 281 280 281 281 281 281 281 282 284 285 285 286 286 286 287 288
285 284 283 283 283 286 286 286 284 283 283 282 283 283 283 283 282 282 281 280 279 280 280 280 280 280 280 280 281 282 283 284 284 284 284 285 286 286
284 283 283 284 285 286 286 284 283 282 282 283 282 282 281 282 282 281 280 279 279 279 281 280 280 279 279 280 280 280 280 281 281 282 283 284 284 285
284 284 283 284 285 284 283 282 281 283 283 282 280 281 281 281 281 280 279 278 278 278 279 279 279 279 279 279 279 279 279 279 280 280 280 281 282 283
284 283 283 283 282 281 281 281 282 282 280 279 279 279 279 279 280 280 280 280 278 277 279 278 277 278 278 278 278 279 279 279 279 279 280 280 281 283
283 283 281 280 279 279 279 280 280 279 279 278 278 278 278 279 279 280 281 280 279 280 280 279 278 278 277 278 278 278 279 280 279 279 280 280 281 281
282 281 279 278 278 278 279 279 279 278 278 278 277 277 278 278 278 278 277 278 276 279 279 279 279 279 278 278 278 278 278 279 280 280 279 279 280 281
281 279 278 277 277 278 278 278 278 278 278 277 276 276 277 277 278 278 278 277 277 277 277 279 279 279 279 278 278 279 279 279 279 279 279 280 281 281
278 277 277 277 277 277 277 277 278 278 277 276 276 276 276 276 276 278 278 276 277 277 278 279 279 279 280 280 280 279 279 279 280 281 281 281 282 282
277 277 276 276 276 276 276 276 276 277 277 276 276 277 276 277 278 277 277 277 278 278 279 280 281 282 282 282 283 284 283 283 283 283 283 283 283 284
276 276 277 277 276 276 276 276 276 277 277 277 277 277 277 277 277 277 278 278 279 281 282 282 282 282 283 284 285 284 284 284 284 284 284 285 285 285
276 277 277 277 277 277 277 277 277 277 276 277 278 278 278 278 278 278 279 281 282 282 282 282 283 284 284 284 284 284 285 285 285 285 286 286 286 286
276 276 277 277 277 277 277 277 277 277 278 278 278 279 279 279 278 280 280 280 281 281 282 283 284 284 284 284 284 284 285 285 286 286 287 287 287 288
276 276 277 277 277 278 278 278 277 278 278 279 279 279 280 279 280 281 281 281 281 283 285 284 284 284 284 284 285 284 284 285 285 287 287 288 288 289

GFSNE_925_thetae_069.txt.gz
Theta_e
302 299 296 293 293 293 293 292 293 291 290 288 288 288 288 287 286 286 286 286 287 288 288 288 288 289 289 290 291 291 292 292 293 294 295 296 296 297
295 292 292 291 291 291 290 290 289 289 290 288 288 288 287 286 286 286 286 286 286 286 287 287 287 288 288 289 290 290 291 292 292 293 294 295 295 296
291 291 291 291 290 290 289 289 289 289 288 288 287 287 286 286 286 286 286 286 285 285 285 286 287 288 288 289 289 289 290 291 291 292 293 294 294 295
290 290 289 290 290 290 290 288 288 287 286 287 286 285 286 286 286 286 285 285 285 284 285 286 287 287 287 288 288 289 290 290 290 291 291 291 292 292
292 293 291 291 291 290 288 287 286 286 285 285 285 285 285 286 286 285 284 284 284 283 284 284 285 286 286 287 287 288 288 288 288 289 289 289 290 290
291 291 290 290 289 287 286 286 286 287 286 286 286 286 285 286 285 284 285 284 284 284 284 284 284 285 285 285 285 286 286 286 287 287 288 288 289 289
291 291 289 287 286 287 287 287 286 286 286 287 287 287 286 286 285 284 284 284 284 284 284 284 284 284 284 284 284 284 284 285 286 287 288 289 289 290
290 285 284 284 284 285 286 286 287 287 287 286 286 286 286 284 284 284 284 284 284 284 284 284 283 283 283 283 283 284 285 285 286 287 287 288 289 289
284 284 284 284 284 283 284 285 286 286 287 286 285 284 284 283 283 284 284 284 283 283 283 283 283 283 283 282 282 283 284 285 286 286 287 287 288 289
284 285 284 283 283 285 286 286 286 285 285 284 283 283 283 284 284 284 283 283 282 282 282 282 283 282 282 282 282 282 283 284 285 285 286 286 287 287
284 284 284 283 284 286 287 285 284 283 282 282 283 283 283 283 282 283 282 282 281 282 281 281 282 282 281 281 282 282 282 283 284 284 284 285 285 286
284 283 283 284 285 286 285 283 282 282 282 282 282 282 282 282 282 281 280 280 280 280 282 281 281 281 281 282 282 282 281 281 282 282 283 284 284 284
284 283 283 284 284 283 283 281 281 283 282 282 280 280 281 281 281 280 280 279 278 279 280 280 280 280 279 280 281 281 280 280 281 281 281 281 282 283
283 283 282 282 281 281 280 281 282 281 280 279 279 280 280 280 281 281 281 280 279 278 280 278 277 278 278 279 280 280 281 281 280 281 281 281 282 282
282 282 281 280 279 279 279 280 280 279 279 279 279 279 279 279 281 282 281 281 280 280 280 279 278 277 278 278 279 279 280 281 280 280 281 281 281 281
282 281 278 278 278 278 279 279 279 278 279 279 278 278 278 278 279 279 278 279 277 280 280 280 279 279 278 278 279 279 280 281 281 281 281 281 281 281
280 278 278 278 277 278 278 278 278 278 278 277 277 277 277 277 278 278 278 277 278 279 279 281 280 279 279 279 279 280 281 281 281 281 281 281 281 281
278 277 277 277 277 277 277 277 277 277 277 276 276 276 276 276 277 278 279 278 278 279 280 280 280 281 282 283 282 281 281 282 283 283 283 282 283 283
277 277 276 276 276 276 276 276 276 277 278 277 276 276 276 276 277 277 278 279 279 280 281 281 283 283 284 284 284 285 285 285 285 285 285 285 285 285
276 276 276 277 277 276 277 276 277 277 277 277 277 277 278 277 276 278 280 280 280 282 283 283 283 284 285 285 286 285 284 284 285 286 286 286 286 286
276 276 277 277 277 277 277 278 278 277 276 277 278 278 279 278 278 279 280 282 283 283 283 283 284 284 285 284 285 285 285 285 285 285 286 286 287 287
275 276 276 277 277 277 277 278 278 278 279 278 279 278 279 279 279 280 281 282 282 283 283 283 285 285 285 285 285 285 285 285 285 285 286 286 287 289
275 275 276 277 277 277 277 278 278 278 279 279 278 279 279 278 280 280 281 282 282 283 285 285 285 285 285 284 284 284 284 285 285 286 287 288 288 288

GFSNE_925_thetae_072.txt.gz
Theta_e
306 308 306 299 298 299 294 293 295 297 293 289 290 289 288 288 288 288 288 288 288 289 289 289 289 289 290 290 291 291 292 292 293 293 295 295 296 297
302 298 296 294 293 293 294 292 291 290 291 289 289 289 289 289 287 287 288 287 288 288 288 288 288 288 289 289 290 291 291 292 292 293 294 295 295 296
297 294 291 290 291 290 290 290 291 292 290 291 291 289 288 287 287 288 287 287 287 287 287 287 287 288 289 289 290 290 290 291 291 292 293 293 294 295
292 292 291 291 291 291 293 293 292 290 289 288 288 287 287 287 287 287 287 286 286 286 286 287 287 288 288 288 289 289 290 290 290 290 291 291 292 292
291 291 291 292 293 292 292 291 289 287 286 287 287 288 287 286 287 287 287 286 286 285 286 286 286 287 287 288 288 288 288 289 289 289 289 289 290 290
292 293 293 293 292 291 290 288 286 287 287 288 288 288 288 288 288 287 287 286 286 286 286 286 286 286 286 287 287 287 287 287 287 288 288 288 289 289
291 292 292 292 290 287 287 288 288 288 287 288 289 289 288 288 287 286 285 285 286 286 286 286 286 286 286 286 286 286 286 286 287 287 288 288 289 289
292 291 288 285 286 287 287 287 287 288 289 289 288 288 288 287 285 285 285 286 286 285 286 286 286 286 286 286 286 286 286 286 286 287 287 288 288 289
285 284 286 285 284 284 284 286 287 287 287 287 287 286 285 284 285 285 285 285 285 285 285 285 285 285 286 285 285 285 285 286 286 286 287 287 287 288
285 285 284 284 284 285 287 287 287 287 286 285 284 284 284 285 285 285 285 285 285 285 285 285 285 285 285 285 285 285 285 285 286 286 286 286 287 287
284 284 285 285 285 287 287 287 286 285 284 283 283 284 284 284 283 283 284 285 284 284 284 284 285 285 284 284 284 284 284 284 284 285 285 285 286 286
285 284 284 285 286 286 285 284 284 283 283 284 284 283 283 283 282 282 283 283 282 283 285 283 283 283 283 283 284 284 284 284 284 284 284 284 285 284
285 284 284 284 284 283 283 283 282 283 284 283 282 283 283 283 283 283 282 282 281 281 282 282 282 281 281 282 282 283 283 283 284 284 284 284 284 284
284 283 283 282 281 281 281 282 282 282 282 282 282 283 283 283 283 282 281 281 280 280 281 280 279 279 280 280 281 282 283 283 283 283 284 284 284 284
283 282 281 280 280 280 280 280 281 281 281 282 283 283 282 281 280 281 282 281 280 281 281 281 279 279 279 279 281 281 282 283 282 283 283 283 283 283
282 281 279 279 279 279 280 280 280 280 281 281 281 281 281 281 281 281 281 280 280 281 282 282 281 280 280 280 281 281 282 283 283 283 284 284 283 283
281 279 279 280 280 280 280 280 280 280 281 280 280 280 280 281 281 281 280 280 281 282 282 283 283 282 282 281 282 282 282 283 284 284 284 284 284 284
279 279 280 280 280 280 280 280 280 280 280 279 279 279 279 280 280 280 281 282 282 282 282 283 283 283 284 285 284 284 284 285 286 286 286 286 286 286
278 279 279 279 279 279 280 280 280 279 278 278 278 278 278 279 280 280 281 282 282 283 283 283 284 285 285 286 286 286 286 286 286 286 286 287 287 287
278 278 279 279 279 279 279 279 279 279 279 278 278 279 279 279 279 280 281 282 282 283 284 284 285 285 286 286 286 285 285 285 286 286 286 287 287 287
278 277 278 278 278 279 279 278 278 278 278 278 278 278 278 279 280 280 281 282 283 284 284 284 285 285 285 285 287 287 286 286 285 286 286 286 287 287
277 277 277 277 278 278 278 277 277 278 278 278 278 278 278 279 279 280 281 283 283 283 284 285 285 286 286 286 287 287 286 286 285 285 286 286 286 288
277 277 277 277 277 277 277 277 277 277 278 278 278 278 278 279 280 281 282 283 283 284 286 286 286 286 287 287 287 287 286 286 286 286 286 287 287 287

GFSNE_925_thetae_075.txt.gz
Theta_e
318 315 307 301 299 299 300 300 301 302 296 291 290 290 291 290 289 289 289 289 290 290 291 291 291 291 291 291 291 292 292 293 293 294 295 295 296 297
312 309 302 300 298 296 295 295 296 295 295 290 290 290 290 291 294 294 290 287 289 289 290 290 290 290 290 290 291 292 292 292 293 293 294 294 295 295
304 302 298 295 293 294 295 296 295 294 292 291 291 293 293 292 288 288 288 288 288 288 289 289 289 289 289 290 290 291 291 291 292 292 293 293 294 295
296 296 295 294 295 294 292 292 293 293 292 291 290 289 288 288 288 287 287 288 288 287 288 288 288 289 289 289 290 290 290 291 291 291 291 291 292 292
294 294 293 293 292 292 293 292 292 291 290 288 288 288 288 288 288 288 288 288 287 287 287 287 288 288 289 289 289 289 290 290 290 290 290 290 290 291
291 291 291 292 293 293 292 291 289 287 288 288 289 289 289 289 289 289 288 287 286 286 287 287 288 288 288 288 289 289 288 288 288 288 289 289 289 289
292 292 292 292 292 290 288 288 289 289 288 288 289 290 290 289 289 288 286 286 286 286 286 286 287 286 287 287 287 287 288 288 288 288 288 288 289 289
291 289 288 287 288 288 288 288 288 288 288 289 289 288 289 288 287 286 285 285 285 286 285 286 286 286 286 286 286 287 288 288 288 288 288 288 288 288
288 286 286 285 285 284 284 286 287 288 288 288 288 287 286 286 285 284 285 286 285 286 285 286 286 286 286 286 286 287 287 288 287 288 288 288 288 288
286 286 286 285 285 285 287 288 288 288 287 287 286 285 284 284 285 285 285 285 285 285 286 286 285 286 285 286 286 286 287 287 287 287 287 287 287 287
284 284 286 286 286 287 287 287 287 286 285 284 283 284 285 285 285 284 284 285 285 284 284 284 285 285 284 284 284 285 286 286 286 286 287 287 287 287
285 285 284 285 286 286 285 284 284 284 283 284 284 284 284 284 284 284 283 283 283 283 285 284 284 283 284 283 283 283 283 284 285 285 285 286 286 286
285 285 284 284 284 283 283 283 282 283 284 284 283 283 284 284 284 284 284 283 283 282 282 283 283 282 282 282 282 282 282 283 284 284 284 285 285 286
284 284 284 283 282 282 282 282 283 283 282 283 283 284 284 284 283 283 282 281 281 281 282 281 280 280 280 280 280 281 282 282 282 283 284 284 284 285
284 283 281 281 281 281 281 281 281 282 282 283 283 283 283 282 281 281 282 282 282 282 282 282 281 281 280 280 280 280 281 281 282 283 284 284 284 284
283 283 280 280 280 280 281 281 281 281 281 281 282 282 281 281 281 282 282 281 281 281 282 282 283 283 282 282 281 282 282 282 282 283 283 284 284 285
281 280 280 280 281 281 281 281 281 281 281 281 281 281 280 281 281 281 281 281 282 282 282 282 283 283 284 283 283 283 283 283 284 284 284 285 286 286
280 280 280 281 281 281 281 281 281 281 281 280 279 279 279 279 280 280 281 282 282 282 283 283 283 284 285 285 285 285 285 285 286 286 286 286 286 286
279 280 280 280 280 280 280 280 280 280 280 279 279 279 279 279 280 280 281 282 282 282 283 283 284 285 285 285 285 286 286 286 286 286 286 286 286 287
279 279 279 280 280 280 280 280 279 279 279 279 279 279 279 279 279 280 281 282 282 283 284 284 284 284 285 285 286 286 286 286 286 286 286 286 286 286
279 279 278 279 279 280 280 279 279 279 279 279 279 279 279 279 279 280 281 282 283 283 283 283 284 285 285 286 286 286 287 287 287 286 286 286 286 286
278 278 278 278 278 279 279 279 278 278 278 279 279 279 279 279 279 280 281 281 282 283 283 284 284 285 285 286 286 287 287 287 287 287 286 286 286 286
278 278 278 278 278 278 278 278 278 278 278 278 279 279 279 279 279 280 280 281 282 283 284 285 285 286 286 287 287 287 287 287 287 287 287 287 287 287

GFSNE_925_thetae_078.txt.gz
Theta_e
324 322 320 313 308 307 304 302 303 302 299 294 298 297 296 295 292 291 291 290 290 293 292 292 292 292 292 292 292 292 293 293 294 295 295 296 296 297
319 318 313 308 303 301 301 302 303 301 298 294 291 292 292 292 291 290 291 293 289 290 291 291 291 291 291 291 291 292 293 293 293 294 294 295 295 296
311 308 304 301 300 299 299 299 298 298 295 292 292 292 291 292 293 289 288 288 288 288 289 290 290 290 290 290 291 291 292 292 292 293 293 294 294 295
303 301 299 296 296 296 296 295 295 295 294 293 292 292 290 288 288 288 288 288 288 288 289 289 289 289 290 290 291 291 291 291 291 291 292 292 292 292
296 296 295 295 294 293 293 293 292 292 291 290 288 288 288 288 288 288 289 288 288 287 287 287 288 289 289 290 290 290 290 290 290 290 290 290 290 291
294 294 293 293 292 292 292 291 290 288 288 288 289 289 289 289 289 289 289 287 286 286 286 286 287 288 288 288 288 289 288 289 289 289 290 290 290 290
291 292 292 291 291 290 289 288 288 289 288 288 288 289 289 288 288 287 286 285 285 284 286 286 286 286 286 286 286 287 287 288 289 289 289 289 289 289
291 290 290 289 289 289 288 288 288 288 288 289 288 288 288 287 286 285 285 284 285 285 285 285 285 285 286 286 286 287 288 288 289 289 289 289 289 289
290 289 287 285 285 284 285 286 287 288 288 288 288 287 286 285 284 284 285 285 285 285 285 285 285 285 285 285 286 286 287 288 288 289 289 288 288 288
286 286 285 285 285 286 287 288 288 287 287 286 286 285 284 284 284 284 285 285 284 284 284 284 285 285 285 285 284 285 286 287 287 287 288 288 288 288
284 285 286 286 287 287 286 286 285 285 285 284 284 285 285 286 286 285 285 283 283 283 283 283 284 284 283 284 284 284 285 285 285 286 287 287 287 287
285 285 285 285 286 285 284 284 283 283 282 284 284 284 283 283 284 284 284 283 283 283 284 283 283 282 282 283 283 282 283 283 283 284 285 286 286 286
285 284 284 284 284 283 283 282 282 283 283 283 283 283 283 284 284 284 284 283 283 283 283 283 282 282 281 281 281 281 281 282 281 282 282 283 284 286
284 284 283 283 282 282 282 282 283 283 282 282 282 283 283 283 282 282 281 282 282 282 282 281 281 281 281 281 281 281 281 281 282 282 282 283 283 284
283 283 282 281 281 280 281 282 282 281 281 282 282 282 282 281 281 281 281 281 282 281 281 281 281 281 281 281 281 281 282 282 282 283 283 283 283 284
283 282 281 281 281 281 281 281 281 281 282 281 281 281 280 280 281 281 281 281 281 281 282 282 282 282 282 282 282 282 282 282 283 283 283 283 284 284
282 280 280 280 280 281 281 281 281 281 281 281 281 280 280 280 280 280 280 281 281 282 282 282 282 283 283 283 283 284 284 284 284 284 284 284 285 285
280 279 280 280 280 281 281 280 280 281 280 280 279 279 279 279 279 280 280 280 281 282 282 282 283 283 284 284 284 284 284 284 285 285 285 285 285 286
279 279 279 280 280 280 280 280 280 280 279 279 279 279 279 279 280 279 279 280 281 282 282 283 283 283 283 283 284 284 285 285 285 285 285 285 286 286
279 279 279 279 279 279 280 280 279 279 279 279 279 279 279 279 279 279 279 280 281 282 283 283 283 282 282 283 284 285 285 286 286 286 286 286 286 286
278 279 278 278 278 278 279 279 279 279 279 279 279 279 279 279 279 279 279 280 282 282 282 282 283 283 284 284 285 285 285 286 286 286 287 287 287 287
278 278 278 278 278 278 278 278 278 278 278 278 278 279 279 279 278 278 279 279 280 280 281 282 282 283 284 285 285 285 286 286 285 285 286 286 287 287
278 277 277 277 277 277 277 277 278 277 278 277 277 278 278 278 278 278 279 279 280 280 282 282 283 283 284 284 285 286 285 285 285 285 285 285 286 287

GFSNE_925_thetae_081.txt.gz
Theta_e
327 326 322 319 314 311 310 309 307 302 298 295 298 297 297 297 297 295 295 296 293 292 293 294 294 293 294 294 294 294 294 294 294 295 296 296 297 297
323 320 314 309 306 305 304 303 304 305 304 298 295 298 297 295 296 294 293 291 290 292 292 292 292 292 292 292 292 292 293 294 294 294 295 295 296 296
312 310 308 304 303 302 302 302 302 301 297 295 294 294 294 293 291 291 291 290 288 288 289 290 291 291 291 291 291 292 292 293 293 293 294 294 295 295
307 305 303 301 300 299 298 298 297 297 296 294 292 291 292 291 289 288 288 288 288 288 289 290 289 289 290 290 291 291 292 292 292 292 292 292 292 293
300 299 297 296 295 295 295 294 294 294 293 292 289 288 288 288 288 288 289 289 288 288 287 287 287 288 289 290 291 290 290 290 291 291 291 291 291 291
296 295 295 295 294 293 293 292 291 289 288 288 288 288 288 289 289 289 288 287 286 286 285 285 287 287 287 287 288 287 288 288 289 290 290 290 290 291
293 292 292 292 292 291 291 289 288 288 288 288 288 289 289 288 288 286 286 285 285 284 285 285 285 286 286 286 286 286 287 289 289 290 290 290 290 290
291 291 291 290 290 289 289 289 289 288 287 288 288 288 288 286 286 285 284 284 284 285 285 284 285 286 286 285 286 287 287 288 289 289 289 289 290 290
292 291 291 287 285 285 286 287 287 288 289 288 288 287 286 285 284 284 284 284 284 284 284 284 285 285 285 285 285 286 287 287 288 288 289 289 289 289
286 285 285 285 285 287 287 287 288 287 287 286 286 285 284 284 284 285 285 285 284 283 283 283 284 284 284 285 285 285 286 286 286 286 287 287 288 288
285 285 286 286 287 287 286 285 285 284 284 284 284 285 285 285 286 285 284 284 283 283 283 283 283 283 283 284 283 283 283 284 284 285 285 286 286 287
285 285 286 285 285 285 284 283 282 282 282 283 283 283 283 283 284 284 284 284 283 283 283 283 283 282 282 282 282 282 282 282 282 283 283 284 285 285
285 284 284 284 284 283 283 282 282 284 283 282 282 283 283 283 283 283 283 282 282 282 282 282 282 282 281 281 281 281 281 282 282 283 283 283 284 285
283 283 283 283 282 282 282 282 283 283 282 282 282 282 282 282 282 281 281 281 281 281 282 281 281 281 281 281 281 282 282 282 282 283 283 283 283 284
283 283 283 281 281 281 280 282 282 281 281 281 281 281 281 280 280 280 281 281 281 281 281 281 282 282 282 281 282 282 282 282 282 283 283 282 283 282
283 282 281 281 281 281 281 281 281 281 281 281 281 281 280 280 280 280 280 280 280 281 281 282 282 282 282 282 282 282 282 283 283 283 283 284 284 284
282 280 280 280 280 280 281 281 281 281 281 280 280 280 280 280 280 280 280 280 279 280 281 282 282 282 282 282 282 283 283 283 283 284 284 284 285 285
281 279 279 279 280 280 280 280 280 280 280 279 279 279 280 280 280 280 280 279 279 279 281 282 282 282 282 282 283 283 283 283 284 284 284 284 285 285
280 279 279 279 279 280 280 280 280 279 279 279 279 279 279 279 280 279 279 279 278 279 280 281 281 281 282 281 282 283 283 283 284 284 285 285 285 285
280 279 279 279 278 278 279 279 279 279 279 278 278 279 279 279 279 278 278 278 278 279 280 281 281 281 280 282 282 283 284 284 285 285 285 286 286 286
279 278 278 278 278 278 278 278 279 279 278 279 278 278 278 279 278 278 278 279 280 280 279 280 281 281 282 282 282 284 284 284 285 285 285 285 285 285
279 278 278 278 278 277 277 277 277 278 278 278 277 277 277 278 278 278 278 278 278 278 279 279 280 281 282 282 283 284 284 285 285 285 285 285 285 285
279 278 278 277 277 277 277 277 277 277 277 277 277 277 277 277 278 278 278 278 278 278 279 280 280 281 282 282 283 284 284 285 285 285 285 285 285 285

GFSNE_925_thetae_084.txt.gz
Theta_e
325 325 324 322 318 316 315 314 312 308 301 297 298 297 297 297 298 297 296 296 296 295 295 295 296 296 296 295 295 295 295 295 295 295 296 297 297 298
321 320 317 315 312 309 307 307 307 307 305 299 296 297 297 297 296 296 296 295 294 293 294 294 294 293 293 293 293 293 293 294 294 295 295 296 297 297
313 311 309 306 305 304 303 303 303 303 300 295 295 294 294 294 294 294 292 292 291 289 290 291 291 291 292 292 292 292 293 293 293 294 294 295 296 296
307 305 303 302 301 300 300 299 299 298 298 294 293 292 292 292 292 290 289 288 288 288 289 290 290 289 290 290 291 291 292 292 292 292 293 293 293 294
302 301 299 299 298 296 296 295 295 294 295 293 290 291 289 288 288 288 289 289 288 288 287 287 286 287 289 290 290 290 291 290 290 290 291 291 291 292
298 298 297 296 295 294 294 293 293 292 291 289 288 288 288 289 289 288 288 287 286 286 285 285 286 286 286 287 288 288 287 288 289 289 290 291 291 291
294 293 293 293 294 294 293 292 291 289 288 288 288 288 289 288 287 286 285 285 284 284 285 285 285 286 286 286 286 286 287 288 289 289 290 290 291 291
292 292 292 291 292 291 290 289 288 288 288 288 288 287 287 287 286 285 284 284 284 285 284 285 285 286 286 286 285 286 287 287 288 289 289 289 290 290
292 291 290 287 285 285 287 287 288 288 289 288 288 287 287 286 284 284 283 284 284 284 283 284 285 285 285 285 285 285 286 287 287 287 288 288 289 289
286 285 285 285 286 287 287 287 287 287 286 286 286 285 284 284 285 285 285 285 284 284 283 283 284 284 284 284 284 285 286 285 285 285 286 287 287 287
285 285 285 287 288 287 285 285 285 285 285 284 284 284 285 285 285 285 285 284 283 283 283 282 283 283 282 283 284 284 283 283 283 284 285 285 285 286
285 286 285 285 285 285 284 283 282 282 282 282 282 283 283 283 284 284 284 283 283 282 283 282 283 282 281 282 283 282 282 283 283 283 283 284 285 285
284 284 284 285 284 283 283 282 282 283 283 282 282 282 283 283 283 283 282 282 281 282 282 282 282 282 281 281 281 282 282 282 282 283 283 283 284 284
283 283 283 283 282 283 282 282 283 283 282 281 282 282 282 282 281 280 281 280 281 281 281 281 281 281 281 281 281 282 281 282 282 282 283 283 283 284
283 283 283 282 281 281 281 282 282 281 281 281 281 281 281 280 280 280 280 280 281 281 281 281 281 281 281 281 281 281 282 282 282 283 283 283 284 283
283 282 281 281 281 281 281 281 281 281 281 281 281 281 280 280 279 280 279 279 280 280 281 281 282 282 282 281 281 281 282 282 282 283 283 283 283 284
283 280 280 280 280 280 280 280 281 281 281 280 280 280 279 279 279 279 280 280 279 278 279 282 282 282 281 281 281 281 282 282 282 283 283 283 283 284
281 280 279 279 279 279 280 280 280 280 280 280 279 279 279 279 279 280 280 279 279 278 279 280 281 280 280 281 282 281 282 282 283 283 283 283 284 284
281 280 279 279 278 279 279 280 280 279 279 279 278 278 279 279 279 279 279 278 278 278 279 279 280 279 280 280 281 282 282 283 282 283 283 284 284 285
280 280 279 279 278 278 278 278 279 279 279 278 278 278 278 278 279 279 278 278 278 278 279 280 280 280 279 280 281 281 282 282 283 283 284 284 284 285
280 279 279 278 278 278 278 278 278 278 279 278 279 277 277 277 278 278 278 278 279 279 278 278 279 279 280 280 280 281 282 283 283 284 284 284 285 285
281 280 279 278 278 278 277 277 277 277 277 277 278 278 277 277 277 277 277 277 277 277 277 278 278 279 280 281 281 282 282 283 284 284 284 284 285 285
280 279 279 278 278 277 277 277 277 276 276 277 277 277 276 276 276 277 276 277 277 277 277 278 279 279 280 281 282 282 282 284 284 284 284 284 284 284

GFSNE_925_thetae_087.txt.gz
Theta_e
322 323 322 322 320 318 317 315 314 309 304 300 299 296 296 296 297 297 297 298 298 297 297 297 296 297 297 297 297 296 296 296 296 296 296 297 298 298
320 319 319 317 316 312 311 310 309 309 306 299 296 296 295 296 296 296 297 296 296 295 295 295 296 295 294 293 294 294 294 294 294 295 296 296 297 298
315 314 313 310 309 307 307 306 306 305 302 296 296 295 295 295 295 295 294 293 292 291 291 291 292 292 292 292 292 292 292 293 294 294 294 295 296 296
311 309 307 305 304 303 303 302 302 301 301 295 293 293 294 293 293 292 290 288 288 288 289 290 291 291 290 290 290 291 292 292 293 292 292 293 294 294
305 304 303 302 301 299 299 298 297 297 297 296 292 292 290 289 288 288 288 289 288 288 288 287 287 287 288 289 290 290 290 290 290 290 290 291 291 292
300 300 299 298 298 296 295 294 294 294 293 292 289 288 288 288 289 288 288 287 286 286 286 284 285 285 285 286 287 287 287 288 289 289 290 291 291 291
296 295 294 294 294 294 294 292 292 290 288 288 288 288 288 288 287 286 285 285 284 283 285 285 285 285 286 286 286 286 286 288 289 289 290 290 291 291
292 292 292 292 292 292 290 288 288 288 287 288 288 287 287 287 286 285 284 283 283 284 284 285 285 286 285 286 285 286 286 287 288 289 289 289 289 290
292 292 291 289 287 287 288 287 288 289 288 288 287 287 286 286 285 284 283 283 284 285 284 284 285 286 285 286 285 285 286 287 287 287 287 287 288 288
290 287 285 286 286 286 286 287 287 287 286 286 286 285 284 284 284 285 285 285 285 284 283 282 284 284 285 285 284 285 286 285 285 285 286 286 287 287
285 285 286 287 288 286 284 284 284 285 285 284 284 284 285 285 285 285 285 284 283 283 283 282 283 282 283 283 283 284 284 284 284 284 285 285 286 286
285 286 285 285 285 285 283 282 282 281 282 282 282 282 283 283 283 283 283 283 283 282 282 282 282 281 281 282 283 284 283 283 283 283 284 284 285 285
284 284 284 285 284 284 284 283 281 283 283 282 281 282 282 283 283 282 282 281 281 281 282 282 282 281 281 281 281 281 282 282 282 283 283 283 283 284
283 283 283 283 283 283 282 282 283 283 283 281 281 282 282 282 281 280 280 280 280 281 281 281 281 281 280 280 281 281 281 281 282 282 283 283 283 284
283 283 284 284 282 281 281 282 282 282 281 281 281 281 281 281 280 280 280 280 280 280 280 280 280 280 280 279 280 280 281 281 281 282 283 283 283 283
283 282 281 282 281 280 280 281 281 281 281 281 281 281 280 279 279 279 279 279 279 280 280 281 281 280 280 280 280 280 281 281 282 281 282 283 283 283
282 282 280 280 280 280 280 280 280 281 281 281 280 280 280 279 279 279 279 280 279 279 278 281 281 280 280 280 279 280 280 281 281 282 282 282 282 283
282 281 280 279 279 279 279 280 280 280 281 280 280 279 279 279 279 279 280 279 279 278 279 280 280 279 279 281 281 282 282 282 282 282 282 281 282 283
283 282 281 279 279 279 279 279 279 280 279 279 279 279 278 278 279 279 279 279 278 278 279 279 279 278 278 279 280 281 281 282 282 281 282 282 283 283
281 280 280 280 279 279 278 278 278 278 279 279 279 278 278 278 278 278 278 278 277 278 279 279 279 279 278 279 279 280 280 281 281 281 282 282 283 283
281 281 280 279 279 278 278 278 278 277 277 278 278 278 278 277 277 277 277 277 278 278 277 278 280 278 279 279 279 280 281 281 281 282 282 283 283 284
281 281 281 280 279 278 278 278 277 277 277 277 277 277 277 277 277 276 275 275 276 276 276 278 279 278 278 279 280 280 280 281 282 282 283 283 284 284
280 280 280 280 279 278 278 277 277 277 277 277 276 276 276 276 276 276 276 275 275 276 276 277 277 277 278 279 280 280 281 281 281 282 283 283 284 284

GFSNE_925_thetae_090.txt.gz
Theta_e
324 323 322 322 321 321 319 317 315 310 306 302 300 300 299 298 299 300 300 300 300 299 299 299 298 298 298 298 298 297 297 296 296 296 296 297 298 299
320 319 318 317 318 316 314 315 313 312 307 301 298 297 297 296 296 297 297 297 298 297 297 296 296 296 295 294 294 294 294 294 295 295 296 297 297 298
316 317 315 313 312 311 310 309 308 307 304 297 297 296 296 296 296 296 296 296 295 294 294 292 292 292 293 293 292 292 292 292 293 294 294 295 296 296
312 312 310 309 307 306 306 305 304 304 304 297 295 294 294 294 294 293 293 291 289 288 289 290 291 291 290 290 290 290 291 291 292 292 293 293 293 293
308 307 306 305 303 301 301 300 300 299 299 298 293 292 291 290 289 289 288 288 288 288 288 288 287 287 287 288 289 290 290 290 290 291 291 291 291 292
302 303 301 300 300 298 297 296 295 295 295 294 291 289 289 288 288 288 288 287 287 286 286 285 284 284 285 286 286 287 287 287 288 289 290 291 291 291
299 297 296 295 295 295 294 294 293 292 290 289 288 288 288 288 287 286 285 285 284 283 283 284 285 285 285 286 286 286 286 287 289 289 290 290 290 290
294 293 293 293 293 292 290 289 288 288 287 288 288 288 287 286 285 285 284 283 282 283 284 285 285 286 285 285 285 285 286 287 288 289 289 289 289 289
293 293 292 291 290 289 289 288 289 289 288 287 287 286 286 286 285 284 283 283 284 285 284 284 285 285 285 285 285 285 285 287 287 286 287 287 288 288
291 288 286 286 286 286 286 286 287 287 286 286 286 285 284 283 284 284 284 284 284 284 283 283 284 284 285 284 284 284 286 286 285 285 286 286 287 287
285 286 287 288 287 285 284 284 284 284 285 285 284 284 285 285 285 285 284 284 283 283 283 282 282 282 284 283 284 284 285 284 284 284 285 285 286 286
285 285 285 285 285 285 283 282 282 281 281 282 282 282 282 284 283 283 283 283 283 282 282 282 282 281 281 283 283 284 284 284 284 283 283 284 284 284
285 285 285 285 284 284 284 283 282 282 283 283 281 281 282 282 282 282 281 281 281 281 281 282 282 281 281 281 281 282 282 283 283 283 283 283 283 284
284 283 283 283 283 282 282 281 283 283 283 281 281 282 282 282 281 281 280 280 280 280 281 281 281 281 281 280 280 281 281 281 282 282 283 283 283 283
283 283 284 284 283 282 281 282 283 282 281 281 281 281 281 280 280 279 279 279 279 280 280 280 280 280 280 279 279 279 280 281 282 283 283 282 283 283
283 283 282 281 281 281 280 280 281 280 280 281 281 281 280 280 279 279 279 279 279 280 280 280 280 280 279 279 279 278 279 280 282 282 282 282 283 282
282 282 281 280 280 280 280 280 280 280 281 281 280 280 280 279 279 279 279 279 280 279 279 281 280 280 279 279 278 280 281 281 282 282 282 282 282 282
283 282 281 280 280 279 279 279 279 280 280 280 280 280 279 279 279 279 279 279 279 278 279 279 279 279 279 280 281 281 281 281 282 282 281 281 281 283
284 283 282 281 280 279 279 279 279 279 280 279 279 279 279 278 279 278 278 278 277 278 278 279 279 278 276 277 279 281 281 281 281 281 280 281 281 282
283 282 282 280 280 279 279 278 278 278 278 279 279 279 278 278 278 278 277 277 277 277 278 279 279 278 277 277 278 278 279 279 280 280 280 281 281 282
282 281 281 281 280 280 279 278 278 278 278 277 277 278 278 278 277 277 276 277 278 278 277 277 279 278 278 277 277 278 279 280 280 281 281 281 281 282
283 282 282 281 281 280 279 279 278 278 277 277 277 277 277 277 277 277 276 275 275 275 275 276 278 278 277 276 277 278 279 279 280 281 281 282 282 283
283 282 281 280 280 280 279 279 278 278 277 277 277 277 276 276 276 276 276 275 275 275 275 275 276 276 276 276 277 278 279 280 280 280 281 282 283 283

GFSNE_925_thetae_093.txt.gz
Theta_e
328 326 325 324 323 322 321 319 317 312 311 304 302 303 302 303 301 301 301 302 303 303 302 301 300 300 299 299 299 298 297 297 297 297 297 298 298 299
326 324 322 319 317 316 316 316 315 314 310 303 301 299 300 298 298 298 299 300 300 299 298 298 298 297 296 296 295 295 295 295 295 295 296 296 297 298
320 317 316 314 315 314 312 312 311 309 306 298 300 298 298 297 297 297 296 297 297 296 296 295 294 293 293 293 293 293 293 293 293 294 294 295 295 295
316 314 312 310 310 309 308 307 307 306 305 299 297 296 295 296 296 295 294 294 292 291 291 290 291 291 291 290 290 290 291 291 292 292 293 293 293 294
310 308 307 306 306 304 303 303 301 301 301 299 293 293 292 292 291 290 289 289 289 289 289 289 288 288 288 287 287 290 290 290 291 291 291 291 291 292
305 304 303 303 302 301 300 299 297 297 297 296 292 290 290 289 289 289 288 288 287 287 286 286 285 284 284 284 286 286 287 287 288 289 290 291 291 292
300 300 299 298 298 297 297 295 295 295 294 292 290 289 288 288 288 287 286 286 285 284 283 284 285 285 285 286 286 286 286 286 288 289 290 290 290 290
296 295 295 294 294 294 293 292 291 290 289 288 287 289 287 286 286 285 284 285 285 283 284 285 285 285 285 286 286 286 286 286 287 289 289 289 289 289
295 294 293 293 292 291 291 290 289 287 287 287 287 286 286 286 285 284 283 283 284 284 284 285 285 285 285 286 286 286 285 287 287 287 287 287 288 288
293 293 291 288 287 286 286 286 286 286 286 286 286 285 284 284 283 284 284 284 284 283 283 285 283 284 285 285 284 285 286 287 286 286 286 287 287 287
287 286 287 287 286 285 284 284 284 285 285 285 284 285 285 285 285 285 284 284 284 283 283 283 283 283 283 283 283 285 286 286 285 284 285 285 285 286
286 287 287 286 286 284 283 282 282 281 282 282 282 282 282 284 283 283 283 283 283 284 282 282 282 282 284 283 283 283 284 284 284 285 284 284 284 285
285 286 286 285 284 284 283 282 282 282 283 283 282 281 281 282 282 282 282 282 282 282 282 282 281 282 282 282 282 284 283 284 284 284 284 283 283 284
285 284 284 284 283 283 282 281 284 284 283 282 281 281 282 282 282 281 281 280 280 280 280 280 281 281 282 282 282 282 282 281 282 283 283 284 283 283
283 283 283 283 283 282 281 282 283 283 282 281 281 281 281 281 280 280 280 280 280 279 279 280 280 280 280 280 281 281 281 282 281 282 283 282 282 283
283 284 283 282 282 281 281 281 281 281 281 281 281 281 281 280 280 280 280 280 280 280 280 280 279 279 279 279 279 279 280 280 282 282 281 281 282 282
283 282 282 280 280 280 280 280 280 280 280 281 281 281 281 280 280 280 279 279 280 280 280 280 280 279 280 280 278 279 280 280 281 281 281 281 282 282
283 282 281 281 280 280 280 279 279 280 280 280 281 280 280 280 280 279 279 279 280 279 278 278 278 278 279 281 281 282 281 280 281 281 281 281 281 282
284 283 283 282 281 280 280 279 279 279 279 280 280 280 279 279 279 279 279 279 279 279 278 277 277 276 279 280 280 280 280 281 281 280 281 281 281 282
285 284 283 282 281 280 280 279 279 279 278 278 279 279 279 279 279 279 278 278 278 278 278 278 277 277 277 279 279 279 279 279 280 280 280 281 281 281
284 284 282 281 281 281 280 280 279 279 278 278 278 278 278 278 278 278 277 278 278 279 278 277 277 276 277 276 276 278 279 279 279 280 280 281 281 282
284 283 283 282 281 281 281 280 279 279 279 278 278 278 277 277 277 277 277 277 277 276 276 276 276 275 275 276 277 278 278 279 279 280 280 281 281 283
285 285 284 283 282 281 280 280 280 279 279 278 278 278 277 277 276 276 275 275 275 275 275 275 275 276 276 276 277 277 278 278 279 280 280 281 281 282

GFSNE_925_thetae_096.txt.gz
Theta_e
328 326 325 325 324 323 323 321 320 320 318 307 305 303 303 303 302 302 302 303 304 304 305 305 304 302 301 300 299 299 298 298 298 298 298 298 299 299
327 326 325 325 323 321 319 317 318 317 316 305 302 301 302 300 300 299 300 301 302 302 301 301 300 299 299 298 296 296 296 295 295 296 296 297 297 297
327 325 323 320 318 315 314 314 314 312 310 301 300 300 299 298 297 297 297 297 297 298 298 297 296 295 294 294 294 294 293 293 293 294 295 295 295 295
320 316 316 315 314 311 310 309 309 308 307 302 297 296 296 298 296 296 295 293 292 293 294 292 292 292 292 292 291 290 291 291 292 292 293 293 294 294
313 312 312 310 308 307 305 305 304 304 303 303 297 295 294 294 293 292 291 291 290 290 290 289 289 289 289 288 288 287 289 291 291 291 291 292 292 292
309 306 306 305 304 303 302 301 299 299 299 299 297 295 294 291 291 292 292 290 290 288 287 287 287 286 285 285 285 285 287 287 288 289 290 291 292 292
303 303 303 302 301 300 299 296 296 296 297 297 296 294 293 292 292 290 290 289 288 286 286 286 286 287 287 287 286 286 286 286 288 290 290 290 291 291
299 298 297 296 296 295 296 296 294 294 294 294 293 294 292 291 289 288 288 288 288 285 286 287 287 288 287 287 287 286 286 287 288 288 289 289 289 289
297 296 294 293 293 293 292 290 289 288 288 289 289 289 289 288 288 287 286 286 287 287 286 288 287 287 287 286 286 286 286 286 287 288 287 288 288 288
294 294 293 291 292 289 288 287 287 287 287 287 288 288 287 286 285 285 285 286 286 286 285 287 287 287 287 287 285 285 286 288 288 287 287 287 287 287
291 289 289 288 286 286 286 286 286 286 286 285 285 285 284 284 285 285 286 286 288 286 285 285 287 286 286 286 285 285 286 287 287 286 285 286 286 286
288 288 288 288 284 283 284 284 284 284 284 284 284 283 283 285 285 284 285 286 286 287 285 285 285 285 287 286 285 285 285 285 285 285 285 285 285 285
288 287 287 287 286 284 283 284 283 282 283 283 283 283 283 284 283 283 283 283 284 285 284 283 283 283 284 285 285 285 285 285 285 285 285 285 284 284
286 286 287 285 284 284 283 282 284 284 284 283 282 283 283 284 283 283 282 282 282 282 282 281 282 282 282 283 284 285 285 285 284 284 284 284 285 285
284 284 284 284 283 283 282 283 285 284 283 282 283 283 283 283 282 281 281 280 280 280 280 280 280 281 281 282 282 282 283 284 283 283 284 284 284 284
283 284 285 285 284 283 282 283 283 283 283 283 283 283 283 282 282 281 281 281 281 281 281 280 280 280 280 281 281 281 282 283 283 283 283 283 283 283
284 284 283 283 283 282 282 281 281 281 282 282 282 283 283 282 281 281 281 281 281 281 282 282 280 279 279 280 280 281 282 283 283 283 282 282 283 284
283 283 283 282 282 282 281 281 281 281 282 282 282 283 283 282 282 281 280 280 281 281 281 281 280 280 281 282 282 282 283 283 283 283 282 282 283 283
285 284 283 283 282 282 282 282 282 281 281 282 282 282 282 282 281 281 281 280 280 280 281 280 279 279 280 282 282 282 281 282 282 282 282 283 283 283
286 286 285 284 283 283 282 282 281 281 280 280 281 281 281 281 281 281 281 281 280 280 280 280 280 279 279 280 279 279 279 279 280 281 281 282 282 282
287 286 285 284 283 282 282 281 280 280 280 280 280 280 280 280 280 280 280 280 280 280 280 280 280 279 278 277 277 278 280 280 280 280 280 281 281 282
286 285 285 284 283 282 281 281 281 280 280 279 279 279 279 279 279 279 279 280 280 279 279 279 278 278 278 277 277 278 279 280 280 280 280 280 281 282
287 286 286 285 284 283 282 281 281 281 280 279 279 279 278 278 278 278 278 278 278 278 278 278 278 278 278 278 278 278 278 279 280 280 281 281 282 282

GFSNE_925_thetae_099.txt.gz
Theta_e
327 328 328 328 327 326 324 324 322 320 318 310 308 305 306 305 305 304 304 304 305 306 306 307 306 306 305 303 301 300 299 298 298 298 299 299 299 299
327 328 328 327 326 324 323 321 321 320 318 309 305 304 303 303 302 302 302 302 303 303 303 303 303 301 300 299 299 298 297 296 296 296 296 296 297 297
325 326 326 326 323 322 319 317 316 316 315 305 304 302 301 300 299 299 299 298 298 300 299 299 299 299 298 296 295 295 294 294 293 294 294 295 296 295
321 320 322 317 317 316 315 313 313 312 311 304 301 300 299 298 298 297 296 295 295 297 297 297 296 294 293 293 292 291 290 291 292 292 293 293 294 294
315 314 316 314 311 311 311 309 308 308 307 305 300 299 297 296 295 294 293 294 293 294 292 291 290 290 290 289 288 288 287 287 291 291 291 292 292 293
312 309 310 308 309 307 307 305 304 303 303 302 299 296 296 294 294 293 292 291 291 290 289 288 288 287 286 286 286 285 285 286 288 289 290 291 292 292
305 306 304 304 304 303 302 301 300 300 300 299 297 296 294 292 293 292 292 291 289 288 287 287 287 287 288 288 287 287 287 287 287 289 290 291 291 291
302 301 300 300 300 299 299 297 297 298 298 298 296 296 294 294 292 290 289 289 289 287 286 287 288 288 288 288 288 287 287 287 287 288 289 290 289 289
299 298 296 296 295 295 294 293 294 294 294 293 293 292 291 290 289 288 288 287 288 288 286 288 288 288 288 287 287 287 287 287 287 288 288 288 288 288
296 296 295 293 293 292 290 289 288 287 287 288 290 289 289 288 287 285 286 286 287 287 285 287 289 288 288 288 287 287 286 288 288 288 288 288 288 288
294 293 292 291 289 288 287 287 287 286 285 286 286 286 285 285 286 286 286 286 288 287 286 286 288 287 287 287 287 286 285 288 288 288 287 287 287 287
290 290 289 289 286 286 286 286 286 285 285 284 284 284 284 285 285 285 286 286 288 288 286 285 285 285 286 288 286 286 285 286 286 286 286 287 287 286
289 289 288 288 285 284 285 284 284 284 284 284 284 283 284 285 283 284 284 284 285 286 284 283 283 283 284 285 285 286 286 286 286 285 286 286 286 285
288 288 288 287 286 285 284 283 283 285 285 284 283 284 284 284 284 283 283 283 283 283 283 282 282 282 283 283 283 285 285 285 285 285 285 285 285 286
287 287 287 286 285 284 283 284 285 285 284 283 283 284 284 284 283 282 282 281 281 281 281 281 281 281 281 282 282 282 282 284 283 284 284 284 284 283
285 285 285 285 284 284 283 283 284 285 284 284 284 284 284 282 282 282 281 281 281 281 282 281 281 280 280 281 281 281 282 282 283 283 283 283 283 283
284 285 285 284 284 283 283 283 283 282 282 282 283 284 283 283 282 281 281 281 281 281 282 282 282 281 280 280 280 280 281 282 283 284 284 283 282 282
285 284 284 283 283 283 283 282 282 282 282 283 283 283 283 283 283 282 281 281 281 281 281 281 281 281 280 281 281 281 281 282 283 283 282 283 283 283
285 284 284 284 283 283 283 282 282 282 282 282 283 283 283 283 283 282 282 281 281 280 280 281 280 280 279 279 281 282 282 282 282 282 282 282 282 282
286 286 285 284 284 283 283 282 282 283 282 281 282 282 283 282 282 282 282 282 282 282 281 281 281 280 280 279 280 280 280 280 279 279 280 280 281 281
287 287 286 286 285 284 284 283 282 282 282 281 281 281 281 281 281 281 282 282 282 281 280 280 281 281 280 279 278 277 278 279 280 280 280 280 280 280
288 288 287 287 286 285 284 283 282 282 282 281 281 280 280 280 280 280 281 281 281 281 280 280 280 279 278 278 278 278 278 278 279 279 280 280 281 281
288 288 287 287 286 285 284 283 282 282 282 281 281 280 280 280 279 280 280 280 280 280 279 279 278 278 278 278 278 279 279 279 279 280 280 281 281 282

GFSNE_925_thetae_102.txt.gz
Theta_e
329 329 329 329 327 328 327 326 323 316 313 312 312 310 309 307 306 305 306 306 307 308 308 309 308 307 307 305 304 302 301 300 299 299 299 299 299 299
328 328 327 328 328 328 327 326 324 322 316 312 308 307 306 304 303 304 304 303 304 304 304 304 304 303 303 301 300 299 298 297 297 296 296 297 297 297
323 324 324 325 327 326 325 324 323 321 317 307 307 304 303 303 300 300 300 301 301 301 302 301 300 299 298 298 297 297 297 295 294 294 294 295 296 296
316 318 321 323 324 321 322 320 318 317 315 307 304 302 301 300 300 300 299 298 299 298 298 297 297 296 296 296 295 293 291 289 289 292 292 293 294 294
315 316 317 317 318 318 314 314 312 313 311 309 302 300 299 299 298 296 296 295 295 294 293 293 292 292 291 290 290 289 288 287 287 291 290 291 292 293
312 312 312 312 312 312 311 311 309 308 307 306 302 299 298 296 295 295 293 293 291 291 290 289 288 287 287 287 287 287 285 285 286 288 289 291 292 292
308 307 308 308 308 308 307 306 305 304 303 302 299 296 295 294 294 294 293 292 290 290 288 287 287 287 287 288 288 287 286 286 287 287 290 291 291 291
305 304 304 303 303 302 302 301 301 301 300 299 297 296 295 295 293 293 291 289 288 288 287 286 288 288 288 288 288 288 287 287 287 288 288 289 289 289
302 301 299 298 299 298 297 298 298 298 298 298 297 296 294 293 292 290 289 288 288 287 287 286 288 288 288 288 287 287 287 287 287 287 288 289 288 289
298 297 296 295 294 295 294 293 293 293 293 292 293 291 291 290 289 288 288 287 287 286 286 286 288 288 288 288 287 287 287 287 288 289 288 288 288 288
295 294 294 294 293 292 290 289 287 287 287 288 289 288 288 287 286 285 286 286 287 287 286 286 287 287 287 287 287 287 286 287 288 288 288 287 288 288
292 292 291 292 290 288 287 287 287 286 285 285 285 284 284 285 285 286 286 286 287 286 286 285 285 285 285 287 287 286 286 286 286 287 287 287 287 287
290 290 289 289 287 286 285 285 285 285 284 284 284 283 284 285 284 284 284 285 287 286 284 284 283 283 284 284 284 285 286 286 286 286 286 286 286 287
289 289 289 288 287 284 284 284 285 284 284 284 284 283 284 284 284 283 283 283 283 284 284 283 282 282 283 282 283 285 285 285 285 285 285 285 285 285
288 288 288 287 286 286 284 284 285 285 284 284 283 283 284 284 284 282 283 282 282 281 281 281 281 281 281 282 282 282 282 283 284 284 284 283 283 283
287 287 288 286 285 284 284 284 285 285 284 283 283 284 284 284 284 283 282 281 281 281 281 281 281 281 280 280 281 281 281 281 283 282 283 283 283 283
285 285 286 286 285 285 284 283 283 285 284 284 284 284 284 283 282 282 281 281 281 281 281 282 282 282 281 280 280 280 280 280 281 282 283 283 282 282
285 285 285 285 284 284 283 283 283 283 282 282 283 283 284 283 283 282 281 281 281 281 281 281 281 281 281 280 280 280 279 280 282 282 282 282 281 281
286 285 285 284 284 283 283 283 282 282 282 282 283 283 283 283 283 283 282 281 281 281 281 280 280 280 280 279 279 281 281 281 281 281 281 279 279 280
287 286 284 284 284 284 283 283 282 282 282 282 282 282 283 283 283 283 283 282 282 282 281 281 281 281 280 279 279 280 280 280 279 279 279 280 280 280
288 287 287 286 285 285 284 284 283 282 282 283 282 282 282 282 283 282 282 282 282 282 281 281 281 280 280 280 279 279 279 278 278 279 279 279 280 280
287 287 287 287 287 286 285 284 284 283 283 282 282 281 281 281 282 281 281 281 281 282 282 281 281 280 280 280 278 278 278 278 279 279 279 280 280 280
288 287 287 287 287 287 287 286 285 284 283 282 282 282 281 281 281 281 280 280 280 280 280 280 280 280 279 279 278 278 278 278 278 279 280 280 280 281

GFSNE_925_thetae_105.txt.gz
Theta_e
327 328 328 328 329 329 329 328 325 322 318 316 314 312 309 310 309 308 307 307 310 311 311 311 310 309 309 307 306 304 303 301 300 300 300 300 300 300
328 328 328 328 327 327 328 328 327 324 321 316 311 309 308 307 307 306 305 305 305 307 307 306 306 305 304 303 301 300 300 299 298 298 297 297 297 297
323 323 324 325 326 326 326 327 326 323 320 309 308 306 305 303 304 303 303 303 303 302 302 302 302 301 300 299 298 298 297 297 296 294 295 295 296 296
316 316 315 318 319 320 322 324 323 322 320 309 305 304 304 302 301 301 301 300 299 299 299 298 298 297 297 297 296 296 294 292 290 289 289 292 294 294
313 314 316 315 316 317 319 320 318 319 316 312 303 302 301 300 299 299 299 297 296 296 296 295 295 294 293 292 291 290 289 288 287 287 288 290 292 293
310 312 313 314 314 315 315 315 315 313 312 310 305 300 300 299 299 298 295 295 294 291 291 291 290 289 289 288 288 289 287 286 285 287 290 290 290 292
307 307 308 309 310 311 311 311 310 309 307 305 301 298 297 296 296 295 294 293 291 290 290 288 287 287 287 287 287 287 286 286 286 288 290 291 291 291
305 305 305 305 305 306 306 306 307 306 305 304 300 298 297 297 295 295 293 290 289 289 288 287 287 287 287 287 288 288 288 287 287 288 290 290 291 289
303 303 303 302 301 302 301 300 301 301 301 302 301 299 297 297 296 293 292 290 289 287 287 286 287 287 288 288 288 287 287 287 287 287 288 290 289 289
301 300 299 298 297 297 298 297 297 297 298 299 299 298 296 295 294 294 292 289 287 287 286 285 287 287 287 287 287 287 287 286 288 288 289 288 288 289
298 297 296 295 295 294 294 293 292 292 291 291 292 291 290 290 289 289 287 286 286 286 286 285 286 287 287 287 287 287 286 286 289 289 288 288 288 288
294 294 294 294 293 292 291 290 288 288 288 288 288 287 287 287 286 285 285 285 287 285 285 285 285 285 286 287 287 286 286 286 286 287 287 287 287 287
293 292 292 292 291 290 287 287 287 286 285 285 284 284 285 285 285 285 285 286 287 286 285 285 284 283 284 284 285 285 286 286 286 286 286 286 285 286
292 291 290 290 288 287 286 285 285 285 285 284 284 283 284 285 283 283 283 284 286 286 285 285 284 283 283 282 282 284 285 284 285 285 285 284 284 284
290 290 289 289 288 286 285 285 286 285 284 284 283 283 284 284 284 283 283 283 283 283 283 282 281 281 281 281 281 281 282 284 284 284 284 283 283 283
289 288 288 288 287 286 285 286 286 285 284 284 284 283 283 284 284 284 282 282 281 281 281 281 281 281 281 280 280 280 280 281 283 283 282 282 282 282
287 287 288 288 286 285 284 284 284 285 284 284 283 283 284 284 284 283 282 281 281 281 281 281 281 281 281 281 280 280 280 280 281 281 282 282 282 281
286 286 286 287 286 285 285 284 283 283 284 284 284 284 284 284 283 282 282 281 281 281 280 281 281 281 281 281 280 280 279 279 281 281 281 280 280 280
287 286 284 285 285 285 284 284 283 283 283 283 282 282 283 284 283 283 282 282 281 281 281 281 280 281 280 278 280 281 280 280 280 280 281 280 278 280
288 286 286 285 285 284 284 283 283 283 282 282 282 282 283 283 283 283 283 283 282 282 282 281 281 280 280 279 280 280 280 280 280 279 279 279 279 280
289 288 287 286 285 284 284 284 284 283 283 282 282 282 282 283 283 283 283 283 282 282 281 282 282 281 281 281 279 280 280 280 279 278 279 279 279 279
289 288 288 287 287 287 286 286 285 284 283 283 282 282 282 282 282 282 282 282 282 283 282 282 282 281 281 281 280 280 279 279 279 279 279 279 279 280
289 289 288 288 287 287 287 287 286 286 285 284 283 283 282 282 282 281 281 281 281 281 281 281 281 280 280 280 280 279 279 278 278 278 279 280 280 280

GFSNE_925_thetae_108.txt.gz
Theta_e
323 324 324 324 324 326 326 326 326 323 318 319 317 316 314 314 313 311 310 309 312 315 316 315 312 313 312 310 309 308 307 305 304 302 301 300 300 300
324 326 326 327 327 326 326 327 327 326 325 319 315 315 312 310 308 308 308 307 308 309 310 310 309 308 307 305 304 303 302 301 300 299 298 298 298 298
326 324 324 325 325 325 325 326 326 325 322 313 311 310 308 306 306 305 305 305 305 305 305 305 304 303 302 301 300 299 299 298 298 297 296 295 296 296
317 316 315 315 315 315 319 321 321 322 322 314 309 306 305 304 303 302 302 302 302 301 301 301 300 299 298 298 298 298 297 296 294 292 291 289 292 294
312 312 312 312 313 314 315 317 318 318 318 316 307 304 302 303 300 299 300 299 299 298 297 297 297 296 296 295 294 293 292 291 289 288 287 287 292 293
309 309 309 310 310 312 313 314 315 315 315 312 306 302 302 300 300 300 297 297 295 295 294 293 292 292 292 291 291 290 289 288 286 287 287 289 290 291
306 306 306 307 307 308 310 311 311 310 309 307 303 300 299 298 298 298 298 295 293 292 291 291 290 289 287 287 287 287 287 286 286 287 290 291 291 291
305 305 304 305 305 306 306 307 307 307 307 305 301 300 300 300 300 298 295 291 290 292 290 289 287 287 287 287 287 287 287 287 287 288 290 291 290 290
303 302 302 303 302 302 302 303 303 303 304 304 303 303 301 301 300 296 294 292 291 289 288 287 286 286 287 287 288 288 287 287 287 287 289 290 290 289
301 300 299 300 300 299 299 299 299 299 300 301 300 300 300 300 298 297 296 292 289 288 287 286 287 287 287 288 288 288 287 287 287 288 288 290 289 288
298 298 297 297 296 296 295 295 295 294 294 295 295 296 295 295 294 294 291 289 286 286 286 285 286 287 287 287 287 287 287 286 288 289 289 289 289 289
297 296 295 294 294 294 293 291 290 290 290 290 290 290 289 289 289 289 289 288 286 285 286 285 285 286 286 286 286 286 286 286 287 288 288 288 288 288
295 295 294 294 293 292 291 288 288 287 287 287 287 287 287 286 285 285 285 285 286 286 286 285 284 284 284 285 286 286 286 286 286 286 286 286 286 286
294 294 293 292 292 290 289 287 286 286 285 284 284 284 284 285 284 284 284 285 285 287 286 285 285 284 283 283 284 284 285 285 285 285 285 285 284 284
292 291 291 290 289 288 287 285 287 286 285 284 284 284 284 284 284 283 283 283 284 284 284 284 284 283 282 282 282 282 283 283 283 283 284 283 283 283
291 290 290 289 290 288 286 287 286 286 284 284 284 283 283 284 284 283 283 283 283 282 282 282 281 280 280 280 280 280 280 280 282 283 283 282 283 282
290 288 288 289 288 287 286 285 285 285 285 284 284 283 283 283 283 283 283 282 281 281 281 281 281 281 281 281 281 281 280 280 279 281 281 282 282 282
289 287 287 288 288 287 286 284 284 284 284 285 284 284 283 283 284 284 283 282 281 280 280 280 280 281 281 281 281 281 280 279 280 281 281 279 280 281
289 287 286 286 286 287 286 285 285 285 284 283 284 284 284 284 284 283 282 282 281 281 281 281 280 281 279 279 280 281 281 281 280 280 280 280 279 280
290 288 287 286 285 285 284 284 284 284 283 283 283 283 282 282 283 283 283 282 282 282 282 281 281 280 280 279 280 281 281 280 280 280 280 279 279 281
291 289 289 289 287 287 285 284 284 284 283 283 283 282 282 282 282 282 283 283 282 282 281 282 282 282 281 280 279 280 281 281 280 280 279 278 279 279
290 290 289 290 289 288 288 287 286 285 284 284 283 283 282 282 282 282 282 282 283 282 282 282 282 282 281 281 280 280 280 280 280 279 279 279 279 279
291 290 289 289 290 289 289 288 287 287 286 286 285 284 283 282 282 282 282 282 282 282 282 282 282 282 281 281 281 280 280 280 279 278 279 280 280 280

GFSNE_925_thetae_111.txt.gz
Theta_e
324 324 324 324 324 323 323 324 324 323 321 321 320 318 316 315 313 313 311 311 313 314 315 315 314 314 314 314 313 311 311 310 307 305 303 302 301 301
324 324 324 324 325 325 325 325 324 323 323 321 318 318 314 311 311 310 309 309 309 311 311 312 311 310 311 309 308 307 306 304 302 302 300 299 299 299
325 323 323 323 323 322 321 320 321 322 322 318 318 314 314 310 310 308 307 306 306 306 307 307 306 305 305 304 302 302 301 300 300 299 298 298 297 297
318 316 314 313 313 313 313 314 315 318 319 318 312 309 310 307 307 306 305 304 304 304 303 303 302 302 301 300 300 300 299 298 297 297 295 293 291 294
311 311 310 309 309 310 310 311 312 314 316 315 312 306 305 305 303 302 302 301 301 300 299 299 298 298 298 298 297 297 296 295 293 291 289 287 288 293
307 307 306 306 307 307 308 309 310 311 312 312 308 304 303 302 301 301 299 299 298 297 297 296 296 296 295 294 293 292 292 290 288 288 286 287 289 291
305 305 305 304 304 305 304 306 307 309 309 308 305 302 301 300 300 299 298 297 296 295 294 292 292 292 291 291 290 290 289 288 286 287 291 290 290 290
304 304 304 304 303 303 304 305 305 305 305 306 304 302 302 301 300 300 298 294 292 294 292 291 290 289 288 287 287 287 287 287 287 288 291 292 291 290
303 302 302 301 301 300 301 302 302 302 302 303 303 303 303 303 303 299 298 295 294 292 290 289 288 287 287 287 287 287 288 288 288 288 289 290 291 291
301 299 299 299 299 298 298 298 298 298 299 300 300 300 301 300 300 301 299 295 291 290 288 287 286 286 286 287 288 289 288 287 287 287 288 290 290 290
299 298 298 298 298 296 296 295 295 294 293 295 296 297 298 298 297 296 294 292 288 288 287 286 286 286 287 287 288 289 288 287 286 289 290 290 289 289
297 298 297 296 295 294 294 293 291 292 291 291 292 292 292 292 292 292 293 291 288 286 286 286 286 287 287 287 287 287 287 286 287 289 289 289 288 288
296 296 296 295 294 294 293 291 289 288 289 288 288 288 288 288 288 288 288 288 288 286 286 285 285 285 285 285 286 286 286 286 286 287 288 287 287 286
294 294 294 293 293 293 291 290 287 287 286 285 285 285 285 285 285 285 285 285 285 286 286 286 286 285 285 284 284 285 285 285 285 285 285 285 286 286
294 293 292 292 291 291 289 288 287 287 286 285 284 284 284 284 284 284 283 284 284 285 286 286 285 285 284 284 283 283 284 284 284 284 284 284 284 284
294 292 291 291 290 290 289 287 287 287 286 284 284 284 283 284 284 283 283 283 283 283 283 283 284 283 282 282 282 282 282 283 282 283 283 283 283 283
293 291 291 289 289 289 289 287 286 286 285 285 284 284 283 283 283 283 283 283 282 281 282 282 282 281 281 281 281 281 282 281 281 281 282 283 283 282
291 291 290 288 288 288 288 287 286 284 284 285 285 284 283 283 283 283 283 283 283 281 281 281 281 281 280 281 281 281 281 281 281 281 281 280 281 282
292 291 290 288 287 287 287 287 287 286 285 284 283 284 284 283 283 283 283 283 282 282 281 280 280 280 279 277 281 281 281 282 281 280 281 280 280 281
292 291 290 289 288 287 286 285 285 285 285 284 284 283 284 283 283 283 283 283 282 282 282 281 280 280 280 279 281 281 280 280 280 280 281 281 280 281
292 291 291 290 290 290 289 288 287 285 284 284 283 283 283 283 282 282 282 283 282 282 281 282 283 282 281 280 279 280 282 281 281 281 281 280 279 280
292 291 291 291 290 290 290 290 289 288 286 284 284 283 283 282 282 282 282 282 282 283 282 283 282 282 281 281 280 280 281 281 281 281 280 280 279 279
291 291 291 290 290 289 289 289 289 289 288 287 286 286 284 283 282 282 282 282 282 282 282 282 282 282 281 281 281 281 281 281 280 280 280 280 280 280

GFSNE_925_thetae_114.txt.gz
Theta_e
323 323 323 323 323 324 324 324 324 323 321 320 322 321 317 313 313 315 314 313 313 315 317 316 316 315 315 315 315 314 313 312 310 307 304 303 303 302
324 325 324 324 324 323 323 323 323 324 322 321 321 320 318 317 313 313 311 310 311 313 313 314 313 312 312 312 312 311 310 307 305 304 303 301 300 300
322 322 321 319 317 316 315 315 316 318 320 319 318 318 315 314 312 309 308 308 309 309 309 309 309 308 308 308 308 306 305 303 302 301 300 299 299 298
319 316 313 311 311 310 310 310 310 312 314 315 314 315 313 310 308 307 307 306 306 306 305 305 305 303 303 303 302 302 301 300 299 298 298 296 296 296
310 309 308 307 306 306 307 308 308 309 310 312 312 309 309 307 305 304 304 304 304 302 302 302 301 300 300 300 300 299 298 297 297 296 294 291 290 294
306 306 305 305 304 304 304 304 305 307 308 309 309 307 306 304 302 303 300 301 300 300 299 299 298 298 297 297 297 297 296 295 293 291 289 287 287 293
305 304 304 304 303 303 303 303 303 303 305 306 306 303 302 300 301 302 300 299 298 298 297 297 297 296 296 294 293 293 292 291 289 288 287 288 290 291
304 304 303 303 303 302 302 302 301 302 303 302 303 302 303 303 301 301 299 295 293 297 295 294 293 292 291 290 289 289 289 288 288 287 291 292 292 290
303 303 302 302 301 301 300 300 300 300 300 300 299 300 301 302 301 299 298 297 297 296 293 291 290 290 289 288 287 287 287 288 289 290 291 292 292 290
302 301 301 300 299 298 298 298 297 297 298 298 298 299 299 300 299 300 300 297 294 292 291 290 289 288 287 286 287 288 290 289 289 289 289 290 291 291
300 299 299 299 298 299 298 296 294 294 293 294 295 296 297 298 297 297 296 293 288 288 288 287 286 286 286 286 287 290 289 287 287 287 289 289 290 290
297 297 297 298 297 296 296 295 293 292 291 292 291 291 292 293 294 293 293 292 290 288 289 287 286 286 286 286 287 289 288 287 287 289 290 290 290 289
297 297 296 295 295 295 294 294 292 289 288 289 288 288 288 288 289 290 290 290 291 288 286 287 285 285 286 285 286 287 287 287 286 288 288 288 288 288
297 296 294 293 293 293 293 292 290 288 287 286 285 285 285 285 285 285 285 286 287 287 286 285 286 286 285 284 285 285 286 286 286 286 287 287 287 287
296 296 294 293 292 292 292 290 288 287 287 286 285 284 284 284 284 284 284 284 285 285 285 285 285 285 285 285 284 284 285 285 285 285 285 285 285 285
296 295 294 292 291 291 290 288 287 287 287 287 285 284 283 283 284 283 283 283 283 284 284 285 285 284 284 284 284 284 284 284 284 284 284 284 284 284
294 294 293 291 291 290 290 289 288 286 286 286 285 284 283 283 283 284 283 283 283 282 282 282 282 282 282 282 282 283 283 282 283 282 282 283 284 284
293 292 292 292 290 289 288 288 288 287 286 284 284 285 284 283 283 283 283 283 283 283 282 281 281 281 281 282 282 282 282 282 282 281 281 281 282 283
294 293 292 292 291 290 288 287 287 287 287 286 284 284 284 284 283 283 282 283 283 283 282 281 281 280 279 279 281 281 281 282 281 281 281 280 281 283
294 293 292 292 291 291 290 289 287 286 285 285 284 284 284 283 284 283 283 283 283 282 282 281 280 280 280 279 281 281 281 282 281 281 281 281 281 281
294 293 293 292 292 292 291 290 290 289 288 286 284 284 283 283 283 283 283 283 283 282 282 282 283 283 281 280 279 280 281 281 281 281 281 281 281 280
292 293 292 292 291 291 291 290 289 289 289 288 287 285 284 283 282 282 282 282 282 283 282 282 282 282 281 281 280 280 281 282 282 281 281 281 281 280
290 291 291 291 290 290 289 289 289 288 288 288 288 288 287 286 284 283 282 282 282 282 282 282 282 282 281 281 281 280 281 281 281 281 281 281 281 281

GFSNE_925_thetae_117.txt.gz
Theta_e
324 323 323 323 323 324 324 324 324 323 321 321 322 323 323 322 322 319 315 314 315 316 317 317 317 316 316 315 314 316 316 315 312 311 309 307 305 306
323 324 324 324 323 322 322 322 322 323 323 322 321 322 321 320 318 315 313 312 312 314 315 315 314 314 314 314 314 313 313 311 309 307 306 304 303 303
320 320 320 318 316 315 314 313 314 314 317 318 318 318 317 316 314 312 311 310 310 311 311 312 311 311 310 310 310 310 309 308 306 304 303 302 302 300
319 317 315 311 309 308 308 309 309 309 311 312 312 313 314 313 311 310 309 308 308 308 307 307 307 307 307 306 306 306 304 303 302 301 300 300 300 298
314 310 308 306 305 305 305 305 305 307 308 309 310 311 311 310 308 306 306 306 305 305 304 304 304 304 302 302 303 302 301 300 300 300 299 297 296 296
307 306 305 304 304 304 303 303 304 304 305 306 307 308 307 306 304 305 303 302 302 302 301 301 300 300 300 300 300 299 299 298 297 296 294 291 291 294
305 304 304 304 303 303 303 302 302 302 302 303 303 304 303 303 303 303 302 302 299 299 299 299 298 298 298 297 296 296 296 295 293 292 290 288 288 294
304 303 303 303 302 302 301 301 300 300 300 301 301 301 302 302 302 301 299 296 295 298 298 297 296 296 296 295 294 293 293 292 291 289 290 291 292 293
303 302 302 301 301 300 300 300 299 299 298 298 298 299 299 300 300 300 298 297 297 297 294 294 294 293 293 292 290 289 288 289 288 289 291 292 292 292
302 301 301 300 300 299 299 299 297 296 296 296 296 296 297 298 298 298 298 296 296 296 294 291 291 291 290 290 288 287 288 289 289 290 291 292 292 292
300 300 300 300 299 299 299 298 298 296 294 293 293 293 295 296 297 296 296 293 291 291 290 289 288 288 288 288 287 287 290 290 290 290 290 291 291 292
300 300 299 299 299 296 297 297 296 294 293 291 291 290 291 292 293 294 293 293 291 290 291 289 287 287 287 286 286 289 290 289 288 287 290 290 290 291
299 298 298 297 296 295 295 295 294 292 289 289 288 288 288 287 288 290 291 291 291 292 289 289 287 286 286 286 286 288 289 288 287 288 290 290 290 289
298 297 296 295 295 294 294 294 292 290 288 287 286 285 285 285 285 285 285 287 288 288 288 287 286 286 285 285 286 286 288 288 287 287 288 288 288 288
297 297 296 295 293 293 293 292 290 289 287 287 286 285 284 284 284 284 284 284 285 285 285 285 285 285 285 285 285 284 285 286 286 286 286 287 287 287
296 296 296 294 292 292 291 290 289 288 287 287 286 285 284 283 283 283 283 283 283 284 285 285 285 285 285 284 284 284 285 285 285 285 285 285 285 285
295 295 294 293 292 291 291 290 290 288 287 286 285 285 284 283 283 283 283 283 283 283 283 283 284 284 283 283 283 284 284 284 284 284 284 284 285 285
294 294 293 293 292 292 291 290 289 288 287 286 285 284 284 284 283 283 283 283 283 283 283 282 282 281 282 283 283 283 283 282 283 283 282 282 283 284
294 294 293 293 292 292 291 290 289 288 287 287 286 285 284 284 283 283 283 282 282 283 283 282 281 281 282 284 282 281 282 283 282 282 282 281 282 282
294 294 294 293 293 292 292 291 291 290 288 286 285 285 284 284 283 283 283 283 282 282 282 282 282 281 281 282 282 281 282 282 281 281 281 281 282 282
294 294 294 293 293 292 292 291 291 290 289 289 288 286 284 284 283 283 283 283 283 282 282 282 283 283 282 281 280 281 282 281 282 282 281 281 281 281
292 292 292 292 292 292 291 291 290 289 289 288 288 288 287 284 283 283 282 282 283 284 283 283 282 282 281 280 281 282 282 282 282 282 282 282 282 282
290 290 290 290 290 290 290 289 289 288 288 287 287 287 287 287 286 284 283 282 282 282 282 282 282 282 281 281 281 281 281 282 282 282 282 282 282 282